<?xml version="1.0"?>
<gpx xmlns="http://www.topografix.com/GPX/1/1" xmlns:xsi="http://www.w3.org/2001/XMLSchema-instance" version="1.1" creator="GPX RubyGem 1.0.0 -- http://dougfales.github.io/gpx/" xsi:schemaLocation="http://www.topografix.com/GPX/1/1 http://www.topografix.com/GPX/1/1/gpx.xsd">
  <metadata>
    <name/>
    <time>2026-05-08T02:24:00+00:00</time>
    <bound minlat="90.0" minlon="180.0" maxlat="-90.0" maxlon="-180.0"/>
  </metadata>
  <trk>
    <name/>
    <trkseg>
      <trkpt lat="46.031878" lon="7.304402">
        <time>1970-01-01T00:00:00+00:00</time>
        <ele>1523.0</ele>
      </trkpt>
      <trkpt lat="46.031472" lon="7.303184">
        <time>1970-01-01T00:00:00+00:00</time>
        <ele>1537.0</ele>
      </trkpt>
      <trkpt lat="46.031417" lon="7.302833">
        <time>1970-01-01T00:00:00+00:00</time>
        <ele>1542.0</ele>
      </trkpt>
      <trkpt lat="46.031279" lon="7.302552">
        <time>1970-01-01T00:00:00+00:00</time>
        <ele>1548.0</ele>
      </trkpt>
      <trkpt lat="46.031261" lon="7.302262">
        <time>1970-01-01T00:00:00+00:00</time>
        <ele>1551.0</ele>
      </trkpt>
      <trkpt lat="46.031088" lon="7.301995">
        <time>1970-01-01T00:00:00+00:00</time>
        <ele>1559.0</ele>
      </trkpt>
      <trkpt lat="46.031079" lon="7.301697">
        <time>1970-01-01T00:00:00+00:00</time>
        <ele>1557.0</ele>
      </trkpt>
      <trkpt lat="46.031137" lon="7.301723">
        <time>1970-01-01T00:00:00+00:00</time>
        <ele>1555.0</ele>
      </trkpt>
      <trkpt lat="46.030716" lon="7.301242">
        <time>1970-01-01T00:00:00+00:00</time>
        <ele>1573.0</ele>
      </trkpt>
      <trkpt lat="46.030664" lon="7.3011">
        <time>1970-01-01T00:00:00+00:00</time>
        <ele>1574.0</ele>
      </trkpt>
      <trkpt lat="46.030533" lon="7.301422">
        <time>1970-01-01T00:00:00+00:00</time>
        <ele>1586.0</ele>
      </trkpt>
      <trkpt lat="46.030484" lon="7.301371">
        <time>1970-01-01T00:00:00+00:00</time>
        <ele>1587.0</ele>
      </trkpt>
      <trkpt lat="46.030462" lon="7.301476">
        <time>1970-01-01T00:00:00+00:00</time>
        <ele>1590.0</ele>
      </trkpt>
      <trkpt lat="46.030342" lon="7.30148">
        <time>1970-01-01T00:00:00+00:00</time>
        <ele>1599.0</ele>
      </trkpt>
      <trkpt lat="46.030271" lon="7.301589">
        <time>1970-01-01T00:00:00+00:00</time>
        <ele>1605.0</ele>
      </trkpt>
      <trkpt lat="46.030194" lon="7.301604">
        <time>1970-01-01T00:00:00+00:00</time>
        <ele>1611.0</ele>
      </trkpt>
      <trkpt lat="46.030074" lon="7.301296">
        <time>1970-01-01T00:00:00+00:00</time>
        <ele>1614.0</ele>
      </trkpt>
      <trkpt lat="46.029994" lon="7.301288">
        <time>1970-01-01T00:00:00+00:00</time>
        <ele>1617.0</ele>
      </trkpt>
      <trkpt lat="46.029935" lon="7.301171">
        <time>1970-01-01T00:00:00+00:00</time>
        <ele>1618.0</ele>
      </trkpt>
      <trkpt lat="46.029775" lon="7.301546">
        <time>1970-01-01T00:00:00+00:00</time>
        <ele>1633.0</ele>
      </trkpt>
      <trkpt lat="46.0295" lon="7.301888">
        <time>1970-01-01T00:00:00+00:00</time>
        <ele>1654.0</ele>
      </trkpt>
      <trkpt lat="46.029461" lon="7.30184">
        <time>1970-01-01T00:00:00+00:00</time>
        <ele>1656.0</ele>
      </trkpt>
      <trkpt lat="46.029413" lon="7.30192">
        <time>1970-01-01T00:00:00+00:00</time>
        <ele>1659.0</ele>
      </trkpt>
      <trkpt lat="46.02934" lon="7.301901">
        <time>1970-01-01T00:00:00+00:00</time>
        <ele>1662.0</ele>
      </trkpt>
      <trkpt lat="46.029309" lon="7.301771">
        <time>1970-01-01T00:00:00+00:00</time>
        <ele>1664.0</ele>
      </trkpt>
      <trkpt lat="46.029193" lon="7.301898">
        <time>1970-01-01T00:00:00+00:00</time>
        <ele>1672.0</ele>
      </trkpt>
      <trkpt lat="46.029113" lon="7.301913">
        <time>1970-01-01T00:00:00+00:00</time>
        <ele>1678.0</ele>
      </trkpt>
      <trkpt lat="46.029079" lon="7.301831">
        <time>1970-01-01T00:00:00+00:00</time>
        <ele>1680.0</ele>
      </trkpt>
      <trkpt lat="46.028874" lon="7.301896">
        <time>1970-01-01T00:00:00+00:00</time>
        <ele>1694.0</ele>
      </trkpt>
      <trkpt lat="46.02885" lon="7.301987">
        <time>1970-01-01T00:00:00+00:00</time>
        <ele>1695.0</ele>
      </trkpt>
      <trkpt lat="46.028783" lon="7.301996">
        <time>1970-01-01T00:00:00+00:00</time>
        <ele>1699.0</ele>
      </trkpt>
      <trkpt lat="46.028485" lon="7.301312">
        <time>1970-01-01T00:00:00+00:00</time>
        <ele>1721.0</ele>
      </trkpt>
      <trkpt lat="46.028408" lon="7.300889">
        <time>1970-01-01T00:00:00+00:00</time>
        <ele>1736.0</ele>
      </trkpt>
      <trkpt lat="46.028346" lon="7.300931">
        <time>1970-01-01T00:00:00+00:00</time>
        <ele>1739.0</ele>
      </trkpt>
      <trkpt lat="46.028271" lon="7.30085">
        <time>1970-01-01T00:00:00+00:00</time>
        <ele>1748.0</ele>
      </trkpt>
      <trkpt lat="46.028261" lon="7.300658">
        <time>1970-01-01T00:00:00+00:00</time>
        <ele>1757.0</ele>
      </trkpt>
      <trkpt lat="46.028221" lon="7.300682">
        <time>1970-01-01T00:00:00+00:00</time>
        <ele>1759.0</ele>
      </trkpt>
      <trkpt lat="46.028243" lon="7.300463">
        <time>1970-01-01T00:00:00+00:00</time>
        <ele>1766.0</ele>
      </trkpt>
      <trkpt lat="46.02813" lon="7.300299">
        <time>1970-01-01T00:00:00+00:00</time>
        <ele>1782.0</ele>
      </trkpt>
      <trkpt lat="46.028158" lon="7.300175">
        <time>1970-01-01T00:00:00+00:00</time>
        <ele>1784.0</ele>
      </trkpt>
      <trkpt lat="46.028452" lon="7.300084">
        <time>1970-01-01T00:00:00+00:00</time>
        <ele>1766.0</ele>
      </trkpt>
      <trkpt lat="46.02849" lon="7.299547">
        <time>1970-01-01T00:00:00+00:00</time>
        <ele>1778.0</ele>
      </trkpt>
      <trkpt lat="46.028449" lon="7.29953">
        <time>1970-01-01T00:00:00+00:00</time>
        <ele>1782.0</ele>
      </trkpt>
      <trkpt lat="46.028449" lon="7.299377">
        <time>1970-01-01T00:00:00+00:00</time>
        <ele>1786.0</ele>
      </trkpt>
      <trkpt lat="46.028313" lon="7.299032">
        <time>1970-01-01T00:00:00+00:00</time>
        <ele>1801.0</ele>
      </trkpt>
      <trkpt lat="46.028241" lon="7.298937">
        <time>1970-01-01T00:00:00+00:00</time>
        <ele>1807.0</ele>
      </trkpt>
      <trkpt lat="46.028195" lon="7.298979">
        <time>1970-01-01T00:00:00+00:00</time>
        <ele>1811.0</ele>
      </trkpt>
      <trkpt lat="46.028215" lon="7.29913">
        <time>1970-01-01T00:00:00+00:00</time>
        <ele>1809.0</ele>
      </trkpt>
      <trkpt lat="46.028087" lon="7.298963">
        <time>1970-01-01T00:00:00+00:00</time>
        <ele>1818.0</ele>
      </trkpt>
      <trkpt lat="46.027989" lon="7.298252">
        <time>1970-01-01T00:00:00+00:00</time>
        <ele>1819.0</ele>
      </trkpt>
      <trkpt lat="46.027889" lon="7.2981">
        <time>1970-01-01T00:00:00+00:00</time>
        <ele>1821.0</ele>
      </trkpt>
      <trkpt lat="46.027766" lon="7.298399">
        <time>1970-01-01T00:00:00+00:00</time>
        <ele>1828.0</ele>
      </trkpt>
      <trkpt lat="46.02756" lon="7.298467">
        <time>1970-01-01T00:00:00+00:00</time>
        <ele>1837.0</ele>
      </trkpt>
      <trkpt lat="46.027399" lon="7.298661">
        <time>1970-01-01T00:00:00+00:00</time>
        <ele>1842.0</ele>
      </trkpt>
      <trkpt lat="46.027208" lon="7.298642">
        <time>1970-01-01T00:00:00+00:00</time>
        <ele>1851.0</ele>
      </trkpt>
      <trkpt lat="46.027135" lon="7.298506">
        <time>1970-01-01T00:00:00+00:00</time>
        <ele>1855.0</ele>
      </trkpt>
      <trkpt lat="46.026946" lon="7.297983">
        <time>1970-01-01T00:00:00+00:00</time>
        <ele>1870.0</ele>
      </trkpt>
      <trkpt lat="46.026944" lon="7.297474">
        <time>1970-01-01T00:00:00+00:00</time>
        <ele>1875.0</ele>
      </trkpt>
      <trkpt lat="46.026857" lon="7.296727">
        <time>1970-01-01T00:00:00+00:00</time>
        <ele>1889.0</ele>
      </trkpt>
      <trkpt lat="46.0269" lon="7.295867">
        <time>1970-01-01T00:00:00+00:00</time>
        <ele>1900.0</ele>
      </trkpt>
      <trkpt lat="46.027048" lon="7.294727">
        <time>1970-01-01T00:00:00+00:00</time>
        <ele>1905.0</ele>
      </trkpt>
      <trkpt lat="46.026946" lon="7.294425">
        <time>1970-01-01T00:00:00+00:00</time>
        <ele>1924.0</ele>
      </trkpt>
      <trkpt lat="46.027039" lon="7.294283">
        <time>1970-01-01T00:00:00+00:00</time>
        <ele>1917.0</ele>
      </trkpt>
      <trkpt lat="46.027345" lon="7.293395">
        <time>1970-01-01T00:00:00+00:00</time>
        <ele>1917.0</ele>
      </trkpt>
      <trkpt lat="46.027349" lon="7.29276">
        <time>1970-01-01T00:00:00+00:00</time>
        <ele>1939.0</ele>
      </trkpt>
      <trkpt lat="46.027244" lon="7.292812">
        <time>1970-01-01T00:00:00+00:00</time>
        <ele>1950.0</ele>
      </trkpt>
      <trkpt lat="46.027217" lon="7.292729">
        <time>1970-01-01T00:00:00+00:00</time>
        <ele>1956.0</ele>
      </trkpt>
      <trkpt lat="46.027351" lon="7.292508">
        <time>1970-01-01T00:00:00+00:00</time>
        <ele>1945.0</ele>
      </trkpt>
      <trkpt lat="46.027361" lon="7.292279">
        <time>1970-01-01T00:00:00+00:00</time>
        <ele>1949.0</ele>
      </trkpt>
      <trkpt lat="46.027249" lon="7.292395">
        <time>1970-01-01T00:00:00+00:00</time>
        <ele>1959.0</ele>
      </trkpt>
      <trkpt lat="46.027114" lon="7.292271">
        <time>1970-01-01T00:00:00+00:00</time>
        <ele>1978.0</ele>
      </trkpt>
      <trkpt lat="46.02726" lon="7.291986">
        <time>1970-01-01T00:00:00+00:00</time>
        <ele>1964.0</ele>
      </trkpt>
      <trkpt lat="46.027196" lon="7.291877">
        <time>1970-01-01T00:00:00+00:00</time>
        <ele>1971.0</ele>
      </trkpt>
      <trkpt lat="46.027095" lon="7.291865">
        <time>1970-01-01T00:00:00+00:00</time>
        <ele>1981.0</ele>
      </trkpt>
      <trkpt lat="46.02715" lon="7.291655">
        <time>1970-01-01T00:00:00+00:00</time>
        <ele>1974.0</ele>
      </trkpt>
      <trkpt lat="46.027072" lon="7.291622">
        <time>1970-01-01T00:00:00+00:00</time>
        <ele>1979.0</ele>
      </trkpt>
      <trkpt lat="46.027091" lon="7.291396">
        <time>1970-01-01T00:00:00+00:00</time>
        <ele>1973.0</ele>
      </trkpt>
      <trkpt lat="46.027061" lon="7.291273">
        <time>1970-01-01T00:00:00+00:00</time>
        <ele>1972.0</ele>
      </trkpt>
      <trkpt lat="46.026999" lon="7.291242">
        <time>1970-01-01T00:00:00+00:00</time>
        <ele>1975.0</ele>
      </trkpt>
      <trkpt lat="46.026983" lon="7.291585">
        <time>1970-01-01T00:00:00+00:00</time>
        <ele>1985.0</ele>
      </trkpt>
      <trkpt lat="46.027022" lon="7.291757">
        <time>1970-01-01T00:00:00+00:00</time>
        <ele>1986.0</ele>
      </trkpt>
      <trkpt lat="46.026979" lon="7.291818">
        <time>1970-01-01T00:00:00+00:00</time>
        <ele>1990.0</ele>
      </trkpt>
      <trkpt lat="46.026858" lon="7.291546">
        <time>1970-01-01T00:00:00+00:00</time>
        <ele>1992.0</ele>
      </trkpt>
      <trkpt lat="46.026612" lon="7.291303">
        <time>1970-01-01T00:00:00+00:00</time>
        <ele>1998.0</ele>
      </trkpt>
      <trkpt lat="46.026285" lon="7.291637">
        <time>1970-01-01T00:00:00+00:00</time>
        <ele>2018.0</ele>
      </trkpt>
      <trkpt lat="46.026114" lon="7.291714">
        <time>1970-01-01T00:00:00+00:00</time>
        <ele>2025.0</ele>
      </trkpt>
      <trkpt lat="46.025732" lon="7.291585">
        <time>1970-01-01T00:00:00+00:00</time>
        <ele>2034.0</ele>
      </trkpt>
      <trkpt lat="46.025399" lon="7.291747">
        <time>1970-01-01T00:00:00+00:00</time>
        <ele>2045.0</ele>
      </trkpt>
      <trkpt lat="46.025207" lon="7.291636">
        <time>1970-01-01T00:00:00+00:00</time>
        <ele>2046.0</ele>
      </trkpt>
      <trkpt lat="46.025026" lon="7.291663">
        <time>1970-01-01T00:00:00+00:00</time>
        <ele>2050.0</ele>
      </trkpt>
      <trkpt lat="46.024781" lon="7.292097">
        <time>1970-01-01T00:00:00+00:00</time>
        <ele>2065.0</ele>
      </trkpt>
      <trkpt lat="46.024709" lon="7.292117">
        <time>1970-01-01T00:00:00+00:00</time>
        <ele>2067.0</ele>
      </trkpt>
      <trkpt lat="46.024545" lon="7.291968">
        <time>1970-01-01T00:00:00+00:00</time>
        <ele>2067.0</ele>
      </trkpt>
      <trkpt lat="46.024421" lon="7.292058">
        <time>1970-01-01T00:00:00+00:00</time>
        <ele>2070.0</ele>
      </trkpt>
      <trkpt lat="46.024328" lon="7.292179">
        <time>1970-01-01T00:00:00+00:00</time>
        <ele>2072.0</ele>
      </trkpt>
      <trkpt lat="46.024374" lon="7.292519">
        <time>1970-01-01T00:00:00+00:00</time>
        <ele>2078.0</ele>
      </trkpt>
      <trkpt lat="46.024214" lon="7.292673">
        <time>1970-01-01T00:00:00+00:00</time>
        <ele>2082.0</ele>
      </trkpt>
      <trkpt lat="46.024029" lon="7.292789">
        <time>1970-01-01T00:00:00+00:00</time>
        <ele>2086.0</ele>
      </trkpt>
      <trkpt lat="46.023558" lon="7.292725">
        <time>1970-01-01T00:00:00+00:00</time>
        <ele>2089.0</ele>
      </trkpt>
      <trkpt lat="46.02301" lon="7.292946">
        <time>1970-01-01T00:00:00+00:00</time>
        <ele>2098.0</ele>
      </trkpt>
      <trkpt lat="46.022766" lon="7.293365">
        <time>1970-01-01T00:00:00+00:00</time>
        <ele>2116.0</ele>
      </trkpt>
      <trkpt lat="46.022715" lon="7.293418">
        <time>1970-01-01T00:00:00+00:00</time>
        <ele>2121.0</ele>
      </trkpt>
      <trkpt lat="46.022591" lon="7.293389">
        <time>1970-01-01T00:00:00+00:00</time>
        <ele>2124.0</ele>
      </trkpt>
      <trkpt lat="46.022635" lon="7.293628">
        <time>1970-01-01T00:00:00+00:00</time>
        <ele>2134.0</ele>
      </trkpt>
      <trkpt lat="46.022527" lon="7.293587">
        <time>1970-01-01T00:00:00+00:00</time>
        <ele>2134.0</ele>
      </trkpt>
      <trkpt lat="46.022315" lon="7.293293">
        <time>1970-01-01T00:00:00+00:00</time>
        <ele>2129.0</ele>
      </trkpt>
      <trkpt lat="46.022001" lon="7.293398">
        <time>1970-01-01T00:00:00+00:00</time>
        <ele>2138.0</ele>
      </trkpt>
      <trkpt lat="46.021895" lon="7.293618">
        <time>1970-01-01T00:00:00+00:00</time>
        <ele>2142.0</ele>
      </trkpt>
      <trkpt lat="46.021873" lon="7.293949">
        <time>1970-01-01T00:00:00+00:00</time>
        <ele>2148.0</ele>
      </trkpt>
      <trkpt lat="46.021713" lon="7.294066">
        <time>1970-01-01T00:00:00+00:00</time>
        <ele>2149.0</ele>
      </trkpt>
      <trkpt lat="46.021585" lon="7.294312">
        <time>1970-01-01T00:00:00+00:00</time>
        <ele>2154.0</ele>
      </trkpt>
      <trkpt lat="46.021027" lon="7.294511">
        <time>1970-01-01T00:00:00+00:00</time>
        <ele>2157.0</ele>
      </trkpt>
      <trkpt lat="46.020685" lon="7.294751">
        <time>1970-01-01T00:00:00+00:00</time>
        <ele>2156.0</ele>
      </trkpt>
      <trkpt lat="46.02016" lon="7.295509">
        <time>1970-01-01T00:00:00+00:00</time>
        <ele>2164.0</ele>
      </trkpt>
      <trkpt lat="46.019991" lon="7.295901">
        <time>1970-01-01T00:00:00+00:00</time>
        <ele>2165.0</ele>
      </trkpt>
      <trkpt lat="46.019475" lon="7.296349">
        <time>1970-01-01T00:00:00+00:00</time>
        <ele>2168.0</ele>
      </trkpt>
      <trkpt lat="46.019299" lon="7.296594">
        <time>1970-01-01T00:00:00+00:00</time>
        <ele>2173.0</ele>
      </trkpt>
      <trkpt lat="46.019321" lon="7.296739">
        <time>1970-01-01T00:00:00+00:00</time>
        <ele>2183.0</ele>
      </trkpt>
      <trkpt lat="46.018873" lon="7.297244">
        <time>1970-01-01T00:00:00+00:00</time>
        <ele>2175.0</ele>
      </trkpt>
      <trkpt lat="46.018755" lon="7.297453">
        <time>1970-01-01T00:00:00+00:00</time>
        <ele>2173.0</ele>
      </trkpt>
      <trkpt lat="46.01855" lon="7.298087">
        <time>1970-01-01T00:00:00+00:00</time>
        <ele>2178.0</ele>
      </trkpt>
      <trkpt lat="46.018082" lon="7.298787">
        <time>1970-01-01T00:00:00+00:00</time>
        <ele>2196.0</ele>
      </trkpt>
      <trkpt lat="46.017797" lon="7.299001">
        <time>1970-01-01T00:00:00+00:00</time>
        <ele>2194.0</ele>
      </trkpt>
      <trkpt lat="46.017191" lon="7.299303">
        <time>1970-01-01T00:00:00+00:00</time>
        <ele>2196.0</ele>
      </trkpt>
      <trkpt lat="46.016531" lon="7.299482">
        <time>1970-01-01T00:00:00+00:00</time>
        <ele>2197.0</ele>
      </trkpt>
      <trkpt lat="46.016293" lon="7.299467">
        <time>1970-01-01T00:00:00+00:00</time>
        <ele>2195.0</ele>
      </trkpt>
      <trkpt lat="46.015994" lon="7.299781">
        <time>1970-01-01T00:00:00+00:00</time>
        <ele>2210.0</ele>
      </trkpt>
      <trkpt lat="46.015791" lon="7.299728">
        <time>1970-01-01T00:00:00+00:00</time>
        <ele>2202.0</ele>
      </trkpt>
      <trkpt lat="46.015234" lon="7.300317">
        <time>1970-01-01T00:00:00+00:00</time>
        <ele>2219.0</ele>
      </trkpt>
      <trkpt lat="46.014921" lon="7.300266">
        <time>1970-01-01T00:00:00+00:00</time>
        <ele>2212.0</ele>
      </trkpt>
      <trkpt lat="46.014662" lon="7.300311">
        <time>1970-01-01T00:00:00+00:00</time>
        <ele>2217.0</ele>
      </trkpt>
      <trkpt lat="46.013913" lon="7.299783">
        <time>1970-01-01T00:00:00+00:00</time>
        <ele>2229.0</ele>
      </trkpt>
      <trkpt lat="46.013812" lon="7.299566">
        <time>1970-01-01T00:00:00+00:00</time>
        <ele>2224.0</ele>
      </trkpt>
      <trkpt lat="46.012997" lon="7.299432">
        <time>1970-01-01T00:00:00+00:00</time>
        <ele>2230.0</ele>
      </trkpt>
      <trkpt lat="46.012768" lon="7.299346">
        <time>1970-01-01T00:00:00+00:00</time>
        <ele>2232.0</ele>
      </trkpt>
      <trkpt lat="46.012521" lon="7.299142">
        <time>1970-01-01T00:00:00+00:00</time>
        <ele>2237.0</ele>
      </trkpt>
      <trkpt lat="46.012154" lon="7.299078">
        <time>1970-01-01T00:00:00+00:00</time>
        <ele>2241.0</ele>
      </trkpt>
      <trkpt lat="46.011857" lon="7.298866">
        <time>1970-01-01T00:00:00+00:00</time>
        <ele>2245.0</ele>
      </trkpt>
      <trkpt lat="46.01086" lon="7.298093">
        <time>1970-01-01T00:00:00+00:00</time>
        <ele>2267.0</ele>
      </trkpt>
      <trkpt lat="46.010447" lon="7.297713">
        <time>1970-01-01T00:00:00+00:00</time>
        <ele>2276.0</ele>
      </trkpt>
      <trkpt lat="46.010153" lon="7.297326">
        <time>1970-01-01T00:00:00+00:00</time>
        <ele>2287.0</ele>
      </trkpt>
      <trkpt lat="46.009202" lon="7.296638">
        <time>1970-01-01T00:00:00+00:00</time>
        <ele>2315.0</ele>
      </trkpt>
      <trkpt lat="46.008864" lon="7.29597">
        <time>1970-01-01T00:00:00+00:00</time>
        <ele>2331.0</ele>
      </trkpt>
      <trkpt lat="46.008924" lon="7.29573">
        <time>1970-01-01T00:00:00+00:00</time>
        <ele>2332.0</ele>
      </trkpt>
      <trkpt lat="46.008852" lon="7.295602">
        <time>1970-01-01T00:00:00+00:00</time>
        <ele>2334.0</ele>
      </trkpt>
      <trkpt lat="46.008127" lon="7.294873">
        <time>1970-01-01T00:00:00+00:00</time>
        <ele>2353.0</ele>
      </trkpt>
      <trkpt lat="46.007526" lon="7.294674">
        <time>1970-01-01T00:00:00+00:00</time>
        <ele>2373.0</ele>
      </trkpt>
      <trkpt lat="46.007435" lon="7.294417">
        <time>1970-01-01T00:00:00+00:00</time>
        <ele>2374.0</ele>
      </trkpt>
      <trkpt lat="46.007214" lon="7.294227">
        <time>1970-01-01T00:00:00+00:00</time>
        <ele>2380.0</ele>
      </trkpt>
      <trkpt lat="46.007" lon="7.294227">
        <time>1970-01-01T00:00:00+00:00</time>
        <ele>2391.0</ele>
      </trkpt>
      <trkpt lat="46.006944" lon="7.294342">
        <time>1970-01-01T00:00:00+00:00</time>
        <ele>2395.0</ele>
      </trkpt>
      <trkpt lat="46.006869" lon="7.294289">
        <time>1970-01-01T00:00:00+00:00</time>
        <ele>2398.0</ele>
      </trkpt>
      <trkpt lat="46.00683" lon="7.29436">
        <time>1970-01-01T00:00:00+00:00</time>
        <ele>2400.0</ele>
      </trkpt>
      <trkpt lat="46.006831" lon="7.294801">
        <time>1970-01-01T00:00:00+00:00</time>
        <ele>2393.0</ele>
      </trkpt>
      <trkpt lat="46.006576" lon="7.294506">
        <time>1970-01-01T00:00:00+00:00</time>
        <ele>2408.0</ele>
      </trkpt>
      <trkpt lat="46.006448" lon="7.294627">
        <time>1970-01-01T00:00:00+00:00</time>
        <ele>2410.0</ele>
      </trkpt>
      <trkpt lat="46.00627" lon="7.294612">
        <time>1970-01-01T00:00:00+00:00</time>
        <ele>2418.0</ele>
      </trkpt>
      <trkpt lat="46.005861" lon="7.294294">
        <time>1970-01-01T00:00:00+00:00</time>
        <ele>2442.0</ele>
      </trkpt>
      <trkpt lat="46.005779" lon="7.294164">
        <time>1970-01-01T00:00:00+00:00</time>
        <ele>2448.0</ele>
      </trkpt>
      <trkpt lat="46.00527" lon="7.294039">
        <time>1970-01-01T00:00:00+00:00</time>
        <ele>2474.0</ele>
      </trkpt>
      <trkpt lat="46.005037" lon="7.294096">
        <time>1970-01-01T00:00:00+00:00</time>
        <ele>2482.0</ele>
      </trkpt>
      <trkpt lat="46.004536" lon="7.294006">
        <time>1970-01-01T00:00:00+00:00</time>
        <ele>2498.0</ele>
      </trkpt>
      <trkpt lat="46.00418" lon="7.294161">
        <time>1970-01-01T00:00:00+00:00</time>
        <ele>2506.0</ele>
      </trkpt>
      <trkpt lat="46.004046" lon="7.29419">
        <time>1970-01-01T00:00:00+00:00</time>
        <ele>2508.0</ele>
      </trkpt>
      <trkpt lat="46.004004" lon="7.294126">
        <time>1970-01-01T00:00:00+00:00</time>
        <ele>2509.0</ele>
      </trkpt>
      <trkpt lat="46.003543" lon="7.294324">
        <time>1970-01-01T00:00:00+00:00</time>
        <ele>2517.0</ele>
      </trkpt>
      <trkpt lat="46.003253" lon="7.29454">
        <time>1970-01-01T00:00:00+00:00</time>
        <ele>2516.0</ele>
      </trkpt>
      <trkpt lat="46.002962" lon="7.294873">
        <time>1970-01-01T00:00:00+00:00</time>
        <ele>2523.0</ele>
      </trkpt>
      <trkpt lat="46.002848" lon="7.295227">
        <time>1970-01-01T00:00:00+00:00</time>
        <ele>2525.0</ele>
      </trkpt>
      <trkpt lat="46.002475" lon="7.295637">
        <time>1970-01-01T00:00:00+00:00</time>
        <ele>2531.0</ele>
      </trkpt>
      <trkpt lat="46.002184" lon="7.29581">
        <time>1970-01-01T00:00:00+00:00</time>
        <ele>2537.0</ele>
      </trkpt>
      <trkpt lat="46.001914" lon="7.295878">
        <time>1970-01-01T00:00:00+00:00</time>
        <ele>2541.0</ele>
      </trkpt>
      <trkpt lat="46.001796" lon="7.295988">
        <time>1970-01-01T00:00:00+00:00</time>
        <ele>2544.0</ele>
      </trkpt>
      <trkpt lat="46.001603" lon="7.296423">
        <time>1970-01-01T00:00:00+00:00</time>
        <ele>2553.0</ele>
      </trkpt>
      <trkpt lat="46.001562" lon="7.296862">
        <time>1970-01-01T00:00:00+00:00</time>
        <ele>2559.0</ele>
      </trkpt>
      <trkpt lat="46.001157" lon="7.297209">
        <time>1970-01-01T00:00:00+00:00</time>
        <ele>2568.0</ele>
      </trkpt>
      <trkpt lat="46.000908" lon="7.29731">
        <time>1970-01-01T00:00:00+00:00</time>
        <ele>2572.0</ele>
      </trkpt>
      <trkpt lat="46.000537" lon="7.297584">
        <time>1970-01-01T00:00:00+00:00</time>
        <ele>2581.0</ele>
      </trkpt>
      <trkpt lat="45.999979" lon="7.297793">
        <time>1970-01-01T00:00:00+00:00</time>
        <ele>2591.0</ele>
      </trkpt>
      <trkpt lat="45.999612" lon="7.297604">
        <time>1970-01-01T00:00:00+00:00</time>
        <ele>2589.0</ele>
      </trkpt>
      <trkpt lat="45.999401" lon="7.29795">
        <time>1970-01-01T00:00:00+00:00</time>
        <ele>2599.0</ele>
      </trkpt>
      <trkpt lat="45.999235" lon="7.298387">
        <time>1970-01-01T00:00:00+00:00</time>
        <ele>2609.0</ele>
      </trkpt>
      <trkpt lat="45.999062" lon="7.298567">
        <time>1970-01-01T00:00:00+00:00</time>
        <ele>2613.0</ele>
      </trkpt>
      <trkpt lat="45.998348" lon="7.299819">
        <time>1970-01-01T00:00:00+00:00</time>
        <ele>2626.0</ele>
      </trkpt>
      <trkpt lat="45.997484" lon="7.300697">
        <time>1970-01-01T00:00:00+00:00</time>
        <ele>2631.0</ele>
      </trkpt>
      <trkpt lat="45.996698" lon="7.300879">
        <time>1970-01-01T00:00:00+00:00</time>
        <ele>2627.0</ele>
      </trkpt>
      <trkpt lat="45.996116" lon="7.301112">
        <time>1970-01-01T00:00:00+00:00</time>
        <ele>2623.0</ele>
      </trkpt>
      <trkpt lat="45.995381" lon="7.301535">
        <time>1970-01-01T00:00:00+00:00</time>
        <ele>2624.0</ele>
      </trkpt>
      <trkpt lat="45.993834" lon="7.301773">
        <time>1970-01-01T00:00:00+00:00</time>
        <ele>2615.0</ele>
      </trkpt>
      <trkpt lat="45.993502" lon="7.301726">
        <time>1970-01-01T00:00:00+00:00</time>
        <ele>2615.0</ele>
      </trkpt>
      <trkpt lat="45.993527" lon="7.301679">
        <time>1970-01-01T00:00:00+00:00</time>
        <ele>2614.0</ele>
      </trkpt>
      <trkpt lat="45.99305" lon="7.301715">
        <time>1970-01-01T00:00:00+00:00</time>
        <ele>2615.0</ele>
      </trkpt>
      <trkpt lat="45.99199" lon="7.301582">
        <time>1970-01-01T00:00:00+00:00</time>
        <ele>2620.0</ele>
      </trkpt>
      <trkpt lat="45.99134" lon="7.301408">
        <time>1970-01-01T00:00:00+00:00</time>
        <ele>2625.0</ele>
      </trkpt>
      <trkpt lat="45.990066" lon="7.301215">
        <time>1970-01-01T00:00:00+00:00</time>
        <ele>2633.0</ele>
      </trkpt>
      <trkpt lat="45.989644" lon="7.301068">
        <time>1970-01-01T00:00:00+00:00</time>
        <ele>2637.0</ele>
      </trkpt>
      <trkpt lat="45.987645" lon="7.300914">
        <time>1970-01-01T00:00:00+00:00</time>
        <ele>2653.0</ele>
      </trkpt>
      <trkpt lat="45.986602" lon="7.300719">
        <time>1970-01-01T00:00:00+00:00</time>
        <ele>2663.0</ele>
      </trkpt>
      <trkpt lat="45.984515" lon="7.30057">
        <time>1970-01-01T00:00:00+00:00</time>
        <ele>2683.0</ele>
      </trkpt>
      <trkpt lat="45.98316" lon="7.300563">
        <time>1970-01-01T00:00:00+00:00</time>
        <ele>2690.0</ele>
      </trkpt>
      <trkpt lat="45.982074" lon="7.300662">
        <time>1970-01-01T00:00:00+00:00</time>
        <ele>2695.0</ele>
      </trkpt>
      <trkpt lat="45.981393" lon="7.300613">
        <time>1970-01-01T00:00:00+00:00</time>
        <ele>2699.0</ele>
      </trkpt>
      <trkpt lat="45.980394" lon="7.300423">
        <time>1970-01-01T00:00:00+00:00</time>
        <ele>2710.0</ele>
      </trkpt>
      <trkpt lat="45.979618" lon="7.300153">
        <time>1970-01-01T00:00:00+00:00</time>
        <ele>2724.0</ele>
      </trkpt>
      <trkpt lat="45.978976" lon="7.299739">
        <time>1970-01-01T00:00:00+00:00</time>
        <ele>2738.0</ele>
      </trkpt>
      <trkpt lat="45.978744" lon="7.299461">
        <time>1970-01-01T00:00:00+00:00</time>
        <ele>2746.0</ele>
      </trkpt>
      <trkpt lat="45.978491" lon="7.298941">
        <time>1970-01-01T00:00:00+00:00</time>
        <ele>2760.0</ele>
      </trkpt>
      <trkpt lat="45.97833" lon="7.299088">
        <time>1970-01-01T00:00:00+00:00</time>
        <ele>2765.0</ele>
      </trkpt>
      <trkpt lat="45.978224" lon="7.2989">
        <time>1970-01-01T00:00:00+00:00</time>
        <ele>2770.0</ele>
      </trkpt>
      <trkpt lat="45.978168" lon="7.298579">
        <time>1970-01-01T00:00:00+00:00</time>
        <ele>2775.0</ele>
      </trkpt>
      <trkpt lat="45.97801" lon="7.298667">
        <time>1970-01-01T00:00:00+00:00</time>
        <ele>2778.0</ele>
      </trkpt>
      <trkpt lat="45.977798" lon="7.298246">
        <time>1970-01-01T00:00:00+00:00</time>
        <ele>2788.0</ele>
      </trkpt>
      <trkpt lat="45.977461" lon="7.297986">
        <time>1970-01-01T00:00:00+00:00</time>
        <ele>2797.0</ele>
      </trkpt>
      <trkpt lat="45.976788" lon="7.297835">
        <time>1970-01-01T00:00:00+00:00</time>
        <ele>2811.0</ele>
      </trkpt>
      <trkpt lat="45.976564" lon="7.298187">
        <time>1970-01-01T00:00:00+00:00</time>
        <ele>2815.0</ele>
      </trkpt>
      <trkpt lat="45.976445" lon="7.298204">
        <time>1970-01-01T00:00:00+00:00</time>
        <ele>2819.0</ele>
      </trkpt>
      <trkpt lat="45.975872" lon="7.297674">
        <time>1970-01-01T00:00:00+00:00</time>
        <ele>2837.0</ele>
      </trkpt>
      <trkpt lat="45.97567" lon="7.298086">
        <time>1970-01-01T00:00:00+00:00</time>
        <ele>2845.0</ele>
      </trkpt>
      <trkpt lat="45.975262" lon="7.297763">
        <time>1970-01-01T00:00:00+00:00</time>
        <ele>2860.0</ele>
      </trkpt>
      <trkpt lat="45.975144" lon="7.297951">
        <time>1970-01-01T00:00:00+00:00</time>
        <ele>2863.0</ele>
      </trkpt>
      <trkpt lat="45.974935" lon="7.297696">
        <time>1970-01-01T00:00:00+00:00</time>
        <ele>2871.0</ele>
      </trkpt>
      <trkpt lat="45.974378" lon="7.297286">
        <time>1970-01-01T00:00:00+00:00</time>
        <ele>2887.0</ele>
      </trkpt>
      <trkpt lat="45.974383" lon="7.297221">
        <time>1970-01-01T00:00:00+00:00</time>
        <ele>2887.0</ele>
      </trkpt>
      <trkpt lat="45.974348" lon="7.29729">
        <time>1970-01-01T00:00:00+00:00</time>
        <ele>2888.0</ele>
      </trkpt>
      <trkpt lat="45.974334" lon="7.297209">
        <time>1970-01-01T00:00:00+00:00</time>
        <ele>2888.0</ele>
      </trkpt>
      <trkpt lat="45.974077" lon="7.297174">
        <time>1970-01-01T00:00:00+00:00</time>
        <ele>2894.0</ele>
      </trkpt>
      <trkpt lat="45.972657" lon="7.296492">
        <time>1970-01-01T00:00:00+00:00</time>
        <ele>2925.0</ele>
      </trkpt>
      <trkpt lat="45.970994" lon="7.29598">
        <time>1970-01-01T00:00:00+00:00</time>
        <ele>2954.0</ele>
      </trkpt>
      <trkpt lat="45.970286" lon="7.295583">
        <time>1970-01-01T00:00:00+00:00</time>
        <ele>2964.0</ele>
      </trkpt>
      <trkpt lat="45.969503" lon="7.295276">
        <time>1970-01-01T00:00:00+00:00</time>
        <ele>2974.0</ele>
      </trkpt>
      <trkpt lat="45.967897" lon="7.29426">
        <time>1970-01-01T00:00:00+00:00</time>
        <ele>2985.0</ele>
      </trkpt>
      <trkpt lat="45.96758" lon="7.294118">
        <time>1970-01-01T00:00:00+00:00</time>
        <ele>2991.0</ele>
      </trkpt>
      <trkpt lat="45.966531" lon="7.293378">
        <time>1970-01-01T00:00:00+00:00</time>
        <ele>3013.0</ele>
      </trkpt>
      <trkpt lat="45.966271" lon="7.293115">
        <time>1970-01-01T00:00:00+00:00</time>
        <ele>3019.0</ele>
      </trkpt>
      <trkpt lat="45.965802" lon="7.292474">
        <time>1970-01-01T00:00:00+00:00</time>
        <ele>3027.0</ele>
      </trkpt>
      <trkpt lat="45.963434" lon="7.290738">
        <time>1970-01-01T00:00:00+00:00</time>
        <ele>3062.0</ele>
      </trkpt>
      <trkpt lat="45.962236" lon="7.290152">
        <time>1970-01-01T00:00:00+00:00</time>
        <ele>3084.0</ele>
      </trkpt>
      <trkpt lat="45.961387" lon="7.289503">
        <time>1970-01-01T00:00:00+00:00</time>
        <ele>3090.0</ele>
      </trkpt>
      <trkpt lat="45.960956" lon="7.289073">
        <time>1970-01-01T00:00:00+00:00</time>
        <ele>3093.0</ele>
      </trkpt>
      <trkpt lat="45.960843" lon="7.288881">
        <time>1970-01-01T00:00:00+00:00</time>
        <ele>3097.0</ele>
      </trkpt>
      <trkpt lat="45.960378" lon="7.288513">
        <time>1970-01-01T00:00:00+00:00</time>
        <ele>3102.0</ele>
      </trkpt>
      <trkpt lat="45.959884" lon="7.287965">
        <time>1970-01-01T00:00:00+00:00</time>
        <ele>3113.0</ele>
      </trkpt>
      <trkpt lat="45.959238" lon="7.287466">
        <time>1970-01-01T00:00:00+00:00</time>
        <ele>3120.0</ele>
      </trkpt>
      <trkpt lat="45.958717" lon="7.287156">
        <time>1970-01-01T00:00:00+00:00</time>
        <ele>3127.0</ele>
      </trkpt>
      <trkpt lat="45.958351" lon="7.287028">
        <time>1970-01-01T00:00:00+00:00</time>
        <ele>3136.0</ele>
      </trkpt>
      <trkpt lat="45.957652" lon="7.287056">
        <time>1970-01-01T00:00:00+00:00</time>
        <ele>3150.0</ele>
      </trkpt>
      <trkpt lat="45.957124" lon="7.286978">
        <time>1970-01-01T00:00:00+00:00</time>
        <ele>3163.0</ele>
      </trkpt>
      <trkpt lat="45.956934" lon="7.286868">
        <time>1970-01-01T00:00:00+00:00</time>
        <ele>3169.0</ele>
      </trkpt>
      <trkpt lat="45.956859" lon="7.286794">
        <time>1970-01-01T00:00:00+00:00</time>
        <ele>3173.0</ele>
      </trkpt>
      <trkpt lat="45.956792" lon="7.28651">
        <time>1970-01-01T00:00:00+00:00</time>
        <ele>3180.0</ele>
      </trkpt>
      <trkpt lat="45.956563" lon="7.28625">
        <time>1970-01-01T00:00:00+00:00</time>
        <ele>3185.0</ele>
      </trkpt>
      <trkpt lat="45.955942" lon="7.285758">
        <time>1970-01-01T00:00:00+00:00</time>
        <ele>3194.0</ele>
      </trkpt>
      <trkpt lat="45.955512" lon="7.285474">
        <time>1970-01-01T00:00:00+00:00</time>
        <ele>3204.0</ele>
      </trkpt>
      <trkpt lat="45.955049" lon="7.28536">
        <time>1970-01-01T00:00:00+00:00</time>
        <ele>3212.0</ele>
      </trkpt>
      <trkpt lat="45.954509" lon="7.284974">
        <time>1970-01-01T00:00:00+00:00</time>
        <ele>3230.0</ele>
      </trkpt>
      <trkpt lat="45.954251" lon="7.2845">
        <time>1970-01-01T00:00:00+00:00</time>
        <ele>3240.0</ele>
      </trkpt>
      <trkpt lat="45.95356" lon="7.283623">
        <time>1970-01-01T00:00:00+00:00</time>
        <ele>3262.0</ele>
      </trkpt>
      <trkpt lat="45.952898" lon="7.28291">
        <time>1970-01-01T00:00:00+00:00</time>
        <ele>3278.0</ele>
      </trkpt>
      <trkpt lat="45.951928" lon="7.28227">
        <time>1970-01-01T00:00:00+00:00</time>
        <ele>3308.0</ele>
      </trkpt>
      <trkpt lat="45.951582" lon="7.282138">
        <time>1970-01-01T00:00:00+00:00</time>
        <ele>3317.0</ele>
      </trkpt>
      <trkpt lat="45.950854" lon="7.282208">
        <time>1970-01-01T00:00:00+00:00</time>
        <ele>3338.0</ele>
      </trkpt>
      <trkpt lat="45.950782" lon="7.282267">
        <time>1970-01-01T00:00:00+00:00</time>
        <ele>3341.0</ele>
      </trkpt>
      <trkpt lat="45.95077" lon="7.282583">
        <time>1970-01-01T00:00:00+00:00</time>
        <ele>3347.0</ele>
      </trkpt>
      <trkpt lat="45.950844" lon="7.283119">
        <time>1970-01-01T00:00:00+00:00</time>
        <ele>3356.0</ele>
      </trkpt>
      <trkpt lat="45.950613" lon="7.283179">
        <time>1970-01-01T00:00:00+00:00</time>
        <ele>3362.0</ele>
      </trkpt>
      <trkpt lat="45.950419" lon="7.283328">
        <time>1970-01-01T00:00:00+00:00</time>
        <ele>3368.0</ele>
      </trkpt>
      <trkpt lat="45.950579" lon="7.283836">
        <time>1970-01-01T00:00:00+00:00</time>
        <ele>3382.0</ele>
      </trkpt>
      <trkpt lat="45.951362" lon="7.284944">
        <time>1970-01-01T00:00:00+00:00</time>
        <ele>3408.0</ele>
      </trkpt>
      <trkpt lat="45.951468" lon="7.28523">
        <time>1970-01-01T00:00:00+00:00</time>
        <ele>3416.0</ele>
      </trkpt>
      <trkpt lat="45.951429" lon="7.285347">
        <time>1970-01-01T00:00:00+00:00</time>
        <ele>3420.0</ele>
      </trkpt>
      <trkpt lat="45.950674" lon="7.28603">
        <time>1970-01-01T00:00:00+00:00</time>
        <ele>3444.0</ele>
      </trkpt>
      <trkpt lat="45.948655" lon="7.287272">
        <time>1970-01-01T00:00:00+00:00</time>
        <ele>3511.0</ele>
      </trkpt>
      <trkpt lat="45.948692" lon="7.287262">
        <time>1970-01-01T00:00:00+00:00</time>
        <ele>3510.0</ele>
      </trkpt>
      <trkpt lat="45.948136" lon="7.287473">
        <time>1970-01-01T00:00:00+00:00</time>
        <ele>3531.0</ele>
      </trkpt>
      <trkpt lat="45.947309" lon="7.287504">
        <time>1970-01-01T00:00:00+00:00</time>
        <ele>3553.0</ele>
      </trkpt>
      <trkpt lat="45.946513" lon="7.287766">
        <time>1970-01-01T00:00:00+00:00</time>
        <ele>3579.0</ele>
      </trkpt>
      <trkpt lat="45.946427" lon="7.287861">
        <time>1970-01-01T00:00:00+00:00</time>
        <ele>3584.0</ele>
      </trkpt>
      <trkpt lat="45.946574" lon="7.288346">
        <time>1970-01-01T00:00:00+00:00</time>
        <ele>3595.0</ele>
      </trkpt>
      <trkpt lat="45.946543" lon="7.288428">
        <time>1970-01-01T00:00:00+00:00</time>
        <ele>3599.0</ele>
      </trkpt>
      <trkpt lat="45.94624" lon="7.288399">
        <time>1970-01-01T00:00:00+00:00</time>
        <ele>3607.0</ele>
      </trkpt>
      <trkpt lat="45.945705" lon="7.288113">
        <time>1970-01-01T00:00:00+00:00</time>
        <ele>3622.0</ele>
      </trkpt>
      <trkpt lat="45.945421" lon="7.288064">
        <time>1970-01-01T00:00:00+00:00</time>
        <ele>3634.0</ele>
      </trkpt>
      <trkpt lat="45.945636" lon="7.288637">
        <time>1970-01-01T00:00:00+00:00</time>
        <ele>3654.0</ele>
      </trkpt>
      <trkpt lat="45.945635" lon="7.288525">
        <time>1970-01-01T00:00:00+00:00</time>
        <ele>3647.0</ele>
      </trkpt>
      <trkpt lat="45.945668" lon="7.288539">
        <time>1970-01-01T00:00:00+00:00</time>
        <ele>3646.0</ele>
      </trkpt>
      <trkpt lat="45.94562" lon="7.288519">
        <time>1970-01-01T00:00:00+00:00</time>
        <ele>3648.0</ele>
      </trkpt>
      <trkpt lat="45.945632" lon="7.288582">
        <time>1970-01-01T00:00:00+00:00</time>
        <ele>3651.0</ele>
      </trkpt>
      <trkpt lat="45.945466" lon="7.288816">
        <time>1970-01-01T00:00:00+00:00</time>
        <ele>3673.0</ele>
      </trkpt>
      <trkpt lat="45.945507" lon="7.289107">
        <time>1970-01-01T00:00:00+00:00</time>
        <ele>3694.0</ele>
      </trkpt>
      <trkpt lat="45.945262" lon="7.289249">
        <time>1970-01-01T00:00:00+00:00</time>
        <ele>3713.0</ele>
      </trkpt>
      <trkpt lat="45.945213" lon="7.289396">
        <time>1970-01-01T00:00:00+00:00</time>
        <ele>3722.0</ele>
      </trkpt>
      <trkpt lat="45.945073" lon="7.289444">
        <time>1970-01-01T00:00:00+00:00</time>
        <ele>3730.0</ele>
      </trkpt>
      <trkpt lat="45.945106" lon="7.289649">
        <time>1970-01-01T00:00:00+00:00</time>
        <ele>3737.0</ele>
      </trkpt>
      <trkpt lat="45.94501" lon="7.289689">
        <time>1970-01-01T00:00:00+00:00</time>
        <ele>3743.0</ele>
      </trkpt>
      <trkpt lat="45.944907" lon="7.290062">
        <time>1970-01-01T00:00:00+00:00</time>
        <ele>3770.0</ele>
      </trkpt>
      <trkpt lat="45.944609" lon="7.290575">
        <time>1970-01-01T00:00:00+00:00</time>
        <ele>3808.0</ele>
      </trkpt>
      <trkpt lat="45.944751" lon="7.290629">
        <time>1970-01-01T00:00:00+00:00</time>
        <ele>3806.0</ele>
      </trkpt>
      <trkpt lat="45.944687" lon="7.290721">
        <time>1970-01-01T00:00:00+00:00</time>
        <ele>3813.0</ele>
      </trkpt>
      <trkpt lat="45.944771" lon="7.290748">
        <time>1970-01-01T00:00:00+00:00</time>
        <ele>3812.0</ele>
      </trkpt>
      <trkpt lat="45.944595" lon="7.291065">
        <time>1970-01-01T00:00:00+00:00</time>
        <ele>3832.0</ele>
      </trkpt>
      <trkpt lat="45.94463" lon="7.291128">
        <time>1970-01-01T00:00:00+00:00</time>
        <ele>3833.0</ele>
      </trkpt>
      <trkpt lat="45.944516" lon="7.291267">
        <time>1970-01-01T00:00:00+00:00</time>
        <ele>3843.0</ele>
      </trkpt>
      <trkpt lat="45.944626" lon="7.2913">
        <time>1970-01-01T00:00:00+00:00</time>
        <ele>3841.0</ele>
      </trkpt>
      <trkpt lat="45.944713" lon="7.291244">
        <time>1970-01-01T00:00:00+00:00</time>
        <ele>3834.0</ele>
      </trkpt>
      <trkpt lat="45.944385" lon="7.291456">
        <time>1970-01-01T00:00:00+00:00</time>
        <ele>3862.0</ele>
      </trkpt>
      <trkpt lat="45.944443" lon="7.291602">
        <time>1970-01-01T00:00:00+00:00</time>
        <ele>3870.0</ele>
      </trkpt>
      <trkpt lat="45.94398" lon="7.291793">
        <time>1970-01-01T00:00:00+00:00</time>
        <ele>3906.0</ele>
      </trkpt>
      <trkpt lat="45.943778" lon="7.291985">
        <time>1970-01-01T00:00:00+00:00</time>
        <ele>3928.0</ele>
      </trkpt>
      <trkpt lat="45.943665" lon="7.292292">
        <time>1970-01-01T00:00:00+00:00</time>
        <ele>3952.0</ele>
      </trkpt>
      <trkpt lat="45.943749" lon="7.29246">
        <time>1970-01-01T00:00:00+00:00</time>
        <ele>3959.0</ele>
      </trkpt>
      <trkpt lat="45.943794" lon="7.292456">
        <time>1970-01-01T00:00:00+00:00</time>
        <ele>3957.0</ele>
      </trkpt>
      <trkpt lat="45.943673" lon="7.292491">
        <time>1970-01-01T00:00:00+00:00</time>
        <ele>3964.0</ele>
      </trkpt>
      <trkpt lat="45.943502" lon="7.292785">
        <time>1970-01-01T00:00:00+00:00</time>
        <ele>3981.0</ele>
      </trkpt>
      <trkpt lat="45.94339" lon="7.29245">
        <time>1970-01-01T00:00:00+00:00</time>
        <ele>3974.0</ele>
      </trkpt>
      <trkpt lat="45.943247" lon="7.292442">
        <time>1970-01-01T00:00:00+00:00</time>
        <ele>3981.0</ele>
      </trkpt>
      <trkpt lat="45.943313" lon="7.292524">
        <time>1970-01-01T00:00:00+00:00</time>
        <ele>3982.0</ele>
      </trkpt>
      <trkpt lat="45.943345" lon="7.292487">
        <time>1970-01-01T00:00:00+00:00</time>
        <ele>3978.0</ele>
      </trkpt>
      <trkpt lat="45.943301" lon="7.29247">
        <time>1970-01-01T00:00:00+00:00</time>
        <ele>3979.0</ele>
      </trkpt>
      <trkpt lat="45.943327" lon="7.29262">
        <time>1970-01-01T00:00:00+00:00</time>
        <ele>3984.0</ele>
      </trkpt>
      <trkpt lat="45.943268" lon="7.292601">
        <time>1970-01-01T00:00:00+00:00</time>
        <ele>3986.0</ele>
      </trkpt>
      <trkpt lat="45.94322" lon="7.292674">
        <time>1970-01-01T00:00:00+00:00</time>
        <ele>3990.0</ele>
      </trkpt>
      <trkpt lat="45.942939" lon="7.292594">
        <time>1970-01-01T00:00:00+00:00</time>
        <ele>3995.0</ele>
      </trkpt>
      <trkpt lat="45.943048" lon="7.2925">
        <time>1970-01-01T00:00:00+00:00</time>
        <ele>3989.0</ele>
      </trkpt>
      <trkpt lat="45.943133" lon="7.292519">
        <time>1970-01-01T00:00:00+00:00</time>
        <ele>3988.0</ele>
      </trkpt>
      <trkpt lat="45.943081" lon="7.292587">
        <time>1970-01-01T00:00:00+00:00</time>
        <ele>3992.0</ele>
      </trkpt>
      <trkpt lat="45.943143" lon="7.292539">
        <time>1970-01-01T00:00:00+00:00</time>
        <ele>3989.0</ele>
      </trkpt>
      <trkpt lat="45.943115" lon="7.292775">
        <time>1970-01-01T00:00:00+00:00</time>
        <ele>3994.0</ele>
      </trkpt>
      <trkpt lat="45.942943" lon="7.292934">
        <time>1970-01-01T00:00:00+00:00</time>
        <ele>4000.0</ele>
      </trkpt>
      <trkpt lat="45.943068" lon="7.29288">
        <time>1970-01-01T00:00:00+00:00</time>
        <ele>3997.0</ele>
      </trkpt>
      <trkpt lat="45.943062" lon="7.29277">
        <time>1970-01-01T00:00:00+00:00</time>
        <ele>3995.0</ele>
      </trkpt>
      <trkpt lat="45.943115" lon="7.292789">
        <time>1970-01-01T00:00:00+00:00</time>
        <ele>3995.0</ele>
      </trkpt>
      <trkpt lat="45.943071" lon="7.292742">
        <time>1970-01-01T00:00:00+00:00</time>
        <ele>3995.0</ele>
      </trkpt>
      <trkpt lat="45.943121" lon="7.29275">
        <time>1970-01-01T00:00:00+00:00</time>
        <ele>3994.0</ele>
      </trkpt>
      <trkpt lat="45.942983" lon="7.292956">
        <time>1970-01-01T00:00:00+00:00</time>
        <ele>4000.0</ele>
      </trkpt>
      <trkpt lat="45.943104" lon="7.292953">
        <time>1970-01-01T00:00:00+00:00</time>
        <ele>3998.0</ele>
      </trkpt>
      <trkpt lat="45.942952" lon="7.292989">
        <time>1970-01-01T00:00:00+00:00</time>
        <ele>4001.0</ele>
      </trkpt>
      <trkpt lat="45.942603" lon="7.293237">
        <time>1970-01-01T00:00:00+00:00</time>
        <ele>4011.0</ele>
      </trkpt>
      <trkpt lat="45.94238" lon="7.29323">
        <time>1970-01-01T00:00:00+00:00</time>
        <ele>4017.0</ele>
      </trkpt>
      <trkpt lat="45.94216" lon="7.293409">
        <time>1970-01-01T00:00:00+00:00</time>
        <ele>4026.0</ele>
      </trkpt>
      <trkpt lat="45.941941" lon="7.293335">
        <time>1970-01-01T00:00:00+00:00</time>
        <ele>4031.0</ele>
      </trkpt>
      <trkpt lat="45.940865" lon="7.293253">
        <time>1970-01-01T00:00:00+00:00</time>
        <ele>4055.0</ele>
      </trkpt>
      <trkpt lat="45.940921" lon="7.29331">
        <time>1970-01-01T00:00:00+00:00</time>
        <ele>4054.0</ele>
      </trkpt>
      <trkpt lat="45.940366" lon="7.293346">
        <time>1970-01-01T00:00:00+00:00</time>
        <ele>4069.0</ele>
      </trkpt>
      <trkpt lat="45.940017" lon="7.29347">
        <time>1970-01-01T00:00:00+00:00</time>
        <ele>4081.0</ele>
      </trkpt>
      <trkpt lat="45.939962" lon="7.293416">
        <time>1970-01-01T00:00:00+00:00</time>
        <ele>4081.0</ele>
      </trkpt>
      <trkpt lat="45.939534" lon="7.293449">
        <time>1970-01-01T00:00:00+00:00</time>
        <ele>4091.0</ele>
      </trkpt>
      <trkpt lat="45.939054" lon="7.293669">
        <time>1970-01-01T00:00:00+00:00</time>
        <ele>4101.0</ele>
      </trkpt>
      <trkpt lat="45.938772" lon="7.293876">
        <time>1970-01-01T00:00:00+00:00</time>
        <ele>4108.0</ele>
      </trkpt>
      <trkpt lat="45.938712" lon="7.293953">
        <time>1970-01-01T00:00:00+00:00</time>
        <ele>4109.0</ele>
      </trkpt>
      <trkpt lat="45.938781" lon="7.293963">
        <time>1970-01-01T00:00:00+00:00</time>
        <ele>4108.0</ele>
      </trkpt>
      <trkpt lat="45.938716" lon="7.294035">
        <time>1970-01-01T00:00:00+00:00</time>
        <ele>4110.0</ele>
      </trkpt>
      <trkpt lat="45.938655" lon="7.294335">
        <time>1970-01-01T00:00:00+00:00</time>
        <ele>4116.0</ele>
      </trkpt>
      <trkpt lat="45.938701" lon="7.294338">
        <time>1970-01-01T00:00:00+00:00</time>
        <ele>4115.0</ele>
      </trkpt>
      <trkpt lat="45.938697" lon="7.294563">
        <time>1970-01-01T00:00:00+00:00</time>
        <ele>4120.0</ele>
      </trkpt>
      <trkpt lat="45.938937" lon="7.295336">
        <time>1970-01-01T00:00:00+00:00</time>
        <ele>4139.0</ele>
      </trkpt>
      <trkpt lat="45.938995" lon="7.295372">
        <time>1970-01-01T00:00:00+00:00</time>
        <ele>4138.0</ele>
      </trkpt>
      <trkpt lat="45.939073" lon="7.295767">
        <time>1970-01-01T00:00:00+00:00</time>
        <ele>4144.0</ele>
      </trkpt>
      <trkpt lat="45.939114" lon="7.295854">
        <time>1970-01-01T00:00:00+00:00</time>
        <ele>4145.0</ele>
      </trkpt>
      <trkpt lat="45.939187" lon="7.295836">
        <time>1970-01-01T00:00:00+00:00</time>
        <ele>4142.0</ele>
      </trkpt>
      <trkpt lat="45.939144" lon="7.296213">
        <time>1970-01-01T00:00:00+00:00</time>
        <ele>4156.0</ele>
      </trkpt>
      <trkpt lat="45.939174" lon="7.296294">
        <time>1970-01-01T00:00:00+00:00</time>
        <ele>4158.0</ele>
      </trkpt>
      <trkpt lat="45.93903" lon="7.296458">
        <time>1970-01-01T00:00:00+00:00</time>
        <ele>4168.0</ele>
      </trkpt>
      <trkpt lat="45.939047" lon="7.29637">
        <time>1970-01-01T00:00:00+00:00</time>
        <ele>4165.0</ele>
      </trkpt>
      <trkpt lat="45.938924" lon="7.296256">
        <time>1970-01-01T00:00:00+00:00</time>
        <ele>4166.0</ele>
      </trkpt>
      <trkpt lat="45.938776" lon="7.296431">
        <time>1970-01-01T00:00:00+00:00</time>
        <ele>4175.0</ele>
      </trkpt>
      <trkpt lat="45.938742" lon="7.296251">
        <time>1970-01-01T00:00:00+00:00</time>
        <ele>4171.0</ele>
      </trkpt>
      <trkpt lat="45.938551" lon="7.296215">
        <time>1970-01-01T00:00:00+00:00</time>
        <ele>4179.0</ele>
      </trkpt>
      <trkpt lat="45.938598" lon="7.296181">
        <time>1970-01-01T00:00:00+00:00</time>
        <ele>4175.0</ele>
      </trkpt>
      <trkpt lat="45.938649" lon="7.296442">
        <time>1970-01-01T00:00:00+00:00</time>
        <ele>4180.0</ele>
      </trkpt>
      <trkpt lat="45.938772" lon="7.296542">
        <time>1970-01-01T00:00:00+00:00</time>
        <ele>4178.0</ele>
      </trkpt>
      <trkpt lat="45.938737" lon="7.296521">
        <time>1970-01-01T00:00:00+00:00</time>
        <ele>4179.0</ele>
      </trkpt>
      <trkpt lat="45.938694" lon="7.296727">
        <time>1970-01-01T00:00:00+00:00</time>
        <ele>4186.0</ele>
      </trkpt>
      <trkpt lat="45.938744" lon="7.29681">
        <time>1970-01-01T00:00:00+00:00</time>
        <ele>4187.0</ele>
      </trkpt>
      <trkpt lat="45.938655" lon="7.296785">
        <time>1970-01-01T00:00:00+00:00</time>
        <ele>4190.0</ele>
      </trkpt>
      <trkpt lat="45.938714" lon="7.296805">
        <time>1970-01-01T00:00:00+00:00</time>
        <ele>4187.0</ele>
      </trkpt>
      <trkpt lat="45.938819" lon="7.297055">
        <time>1970-01-01T00:00:00+00:00</time>
        <ele>4192.0</ele>
      </trkpt>
      <trkpt lat="45.938838" lon="7.297369">
        <time>1970-01-01T00:00:00+00:00</time>
        <ele>4197.0</ele>
      </trkpt>
      <trkpt lat="45.938901" lon="7.297559">
        <time>1970-01-01T00:00:00+00:00</time>
        <ele>4200.0</ele>
      </trkpt>
      <trkpt lat="45.938829" lon="7.297624">
        <time>1970-01-01T00:00:00+00:00</time>
        <ele>4204.0</ele>
      </trkpt>
      <trkpt lat="45.938504" lon="7.297568">
        <time>1970-01-01T00:00:00+00:00</time>
        <ele>4216.0</ele>
      </trkpt>
      <trkpt lat="45.938552" lon="7.297776">
        <time>1970-01-01T00:00:00+00:00</time>
        <ele>4220.0</ele>
      </trkpt>
      <trkpt lat="45.93812" lon="7.297639">
        <time>1970-01-01T00:00:00+00:00</time>
        <ele>4236.0</ele>
      </trkpt>
      <trkpt lat="45.937997" lon="7.29751">
        <time>1970-01-01T00:00:00+00:00</time>
        <ele>4238.0</ele>
      </trkpt>
      <trkpt lat="45.938069" lon="7.297625">
        <time>1970-01-01T00:00:00+00:00</time>
        <ele>4238.0</ele>
      </trkpt>
      <trkpt lat="45.938031" lon="7.297862">
        <time>1970-01-01T00:00:00+00:00</time>
        <ele>4247.0</ele>
      </trkpt>
      <trkpt lat="45.938067" lon="7.297976">
        <time>1970-01-01T00:00:00+00:00</time>
        <ele>4249.0</ele>
      </trkpt>
      <trkpt lat="45.93805" lon="7.298058">
        <time>1970-01-01T00:00:00+00:00</time>
        <ele>4252.0</ele>
      </trkpt>
      <trkpt lat="45.937935" lon="7.298121">
        <time>1970-01-01T00:00:00+00:00</time>
        <ele>4260.0</ele>
      </trkpt>
      <trkpt lat="45.937785" lon="7.297914">
        <time>1970-01-01T00:00:00+00:00</time>
        <ele>4262.0</ele>
      </trkpt>
      <trkpt lat="45.937866" lon="7.298303">
        <time>1970-01-01T00:00:00+00:00</time>
        <ele>4270.0</ele>
      </trkpt>
      <trkpt lat="45.937826" lon="7.298502">
        <time>1970-01-01T00:00:00+00:00</time>
        <ele>4280.0</ele>
      </trkpt>
      <trkpt lat="45.937332" lon="7.298305">
        <time>1970-01-01T00:00:00+00:00</time>
        <ele>4269.0</ele>
      </trkpt>
      <trkpt lat="45.937348" lon="7.298723">
        <time>1970-01-01T00:00:00+00:00</time>
        <ele>4275.0</ele>
      </trkpt>
      <trkpt lat="45.937719" lon="7.299182">
        <time>1970-01-01T00:00:00+00:00</time>
        <ele>4287.0</ele>
      </trkpt>
      <trkpt lat="45.937632" lon="7.299235">
        <time>1970-01-01T00:00:00+00:00</time>
        <ele>4283.0</ele>
      </trkpt>
      <trkpt lat="45.937606" lon="7.299197">
        <time>1970-01-01T00:00:00+00:00</time>
        <ele>4285.0</ele>
      </trkpt>
      <trkpt lat="45.937672" lon="7.299158">
        <time>1970-01-01T00:00:00+00:00</time>
        <ele>4288.0</ele>
      </trkpt>
      <trkpt lat="45.937319" lon="7.298617">
        <time>1970-01-01T00:00:00+00:00</time>
        <ele>4272.0</ele>
      </trkpt>
      <trkpt lat="45.937323" lon="7.298429">
        <time>1970-01-01T00:00:00+00:00</time>
        <ele>4271.0</ele>
      </trkpt>
      <trkpt lat="45.9374" lon="7.298359">
        <time>1970-01-01T00:00:00+00:00</time>
        <ele>4275.0</ele>
      </trkpt>
      <trkpt lat="45.937421" lon="7.298228">
        <time>1970-01-01T00:00:00+00:00</time>
        <ele>4273.0</ele>
      </trkpt>
      <trkpt lat="45.937551" lon="7.298118">
        <time>1970-01-01T00:00:00+00:00</time>
        <ele>4273.0</ele>
      </trkpt>
      <trkpt lat="45.937883" lon="7.298293">
        <time>1970-01-01T00:00:00+00:00</time>
        <ele>4269.0</ele>
      </trkpt>
      <trkpt lat="45.937839" lon="7.297918">
        <time>1970-01-01T00:00:00+00:00</time>
        <ele>4259.0</ele>
      </trkpt>
      <trkpt lat="45.937978" lon="7.297887">
        <time>1970-01-01T00:00:00+00:00</time>
        <ele>4250.0</ele>
      </trkpt>
      <trkpt lat="45.938157" lon="7.297994">
        <time>1970-01-01T00:00:00+00:00</time>
        <ele>4245.0</ele>
      </trkpt>
      <trkpt lat="45.938172" lon="7.297679">
        <time>1970-01-01T00:00:00+00:00</time>
        <ele>4234.0</ele>
      </trkpt>
      <trkpt lat="45.938697" lon="7.297957">
        <time>1970-01-01T00:00:00+00:00</time>
        <ele>4218.0</ele>
      </trkpt>
      <trkpt lat="45.938717" lon="7.297765">
        <time>1970-01-01T00:00:00+00:00</time>
        <ele>4212.0</ele>
      </trkpt>
      <trkpt lat="45.938633" lon="7.29725">
        <time>1970-01-01T00:00:00+00:00</time>
        <ele>4203.0</ele>
      </trkpt>
      <trkpt lat="45.938684" lon="7.297234">
        <time>1970-01-01T00:00:00+00:00</time>
        <ele>4200.0</ele>
      </trkpt>
      <trkpt lat="45.938751" lon="7.296911">
        <time>1970-01-01T00:00:00+00:00</time>
        <ele>4190.0</ele>
      </trkpt>
      <trkpt lat="45.938918" lon="7.296723">
        <time>1970-01-01T00:00:00+00:00</time>
        <ele>4179.0</ele>
      </trkpt>
      <trkpt lat="45.93878" lon="7.296377">
        <time>1970-01-01T00:00:00+00:00</time>
        <ele>4174.0</ele>
      </trkpt>
      <trkpt lat="45.938802" lon="7.296158">
        <time>1970-01-01T00:00:00+00:00</time>
        <ele>4166.0</ele>
      </trkpt>
      <trkpt lat="45.939008" lon="7.296263">
        <time>1970-01-01T00:00:00+00:00</time>
        <ele>4163.0</ele>
      </trkpt>
      <trkpt lat="45.939007" lon="7.29605">
        <time>1970-01-01T00:00:00+00:00</time>
        <ele>4156.0</ele>
      </trkpt>
      <trkpt lat="45.938808" lon="7.295636">
        <time>1970-01-01T00:00:00+00:00</time>
        <ele>4151.0</ele>
      </trkpt>
      <trkpt lat="45.938885" lon="7.295524">
        <time>1970-01-01T00:00:00+00:00</time>
        <ele>4147.0</ele>
      </trkpt>
      <trkpt lat="45.938993" lon="7.295586">
        <time>1970-01-01T00:00:00+00:00</time>
        <ele>4144.0</ele>
      </trkpt>
      <trkpt lat="45.939026" lon="7.295395">
        <time>1970-01-01T00:00:00+00:00</time>
        <ele>4137.0</ele>
      </trkpt>
      <trkpt lat="45.938874" lon="7.295071">
        <time>1970-01-01T00:00:00+00:00</time>
        <ele>4132.0</ele>
      </trkpt>
      <trkpt lat="45.938995" lon="7.294869">
        <time>1970-01-01T00:00:00+00:00</time>
        <ele>4121.0</ele>
      </trkpt>
      <trkpt lat="45.938708" lon="7.294395">
        <time>1970-01-01T00:00:00+00:00</time>
        <ele>4116.0</ele>
      </trkpt>
      <trkpt lat="45.938787" lon="7.293933">
        <time>1970-01-01T00:00:00+00:00</time>
        <ele>4108.0</ele>
      </trkpt>
      <trkpt lat="45.938963" lon="7.2937">
        <time>1970-01-01T00:00:00+00:00</time>
        <ele>4104.0</ele>
      </trkpt>
      <trkpt lat="45.939237" lon="7.293693">
        <time>1970-01-01T00:00:00+00:00</time>
        <ele>4097.0</ele>
      </trkpt>
      <trkpt lat="45.939684" lon="7.293462">
        <time>1970-01-01T00:00:00+00:00</time>
        <ele>4087.0</ele>
      </trkpt>
      <trkpt lat="45.940334" lon="7.293375">
        <time>1970-01-01T00:00:00+00:00</time>
        <ele>4070.0</ele>
      </trkpt>
      <trkpt lat="45.940857" lon="7.293392">
        <time>1970-01-01T00:00:00+00:00</time>
        <ele>4058.0</ele>
      </trkpt>
      <trkpt lat="45.941076" lon="7.293265">
        <time>1970-01-01T00:00:00+00:00</time>
        <ele>4050.0</ele>
      </trkpt>
      <trkpt lat="45.941454" lon="7.293217">
        <time>1970-01-01T00:00:00+00:00</time>
        <ele>4042.0</ele>
      </trkpt>
      <trkpt lat="45.941878" lon="7.293414">
        <time>1970-01-01T00:00:00+00:00</time>
        <ele>4034.0</ele>
      </trkpt>
      <trkpt lat="45.942101" lon="7.293318">
        <time>1970-01-01T00:00:00+00:00</time>
        <ele>4026.0</ele>
      </trkpt>
      <trkpt lat="45.942249" lon="7.293401">
        <time>1970-01-01T00:00:00+00:00</time>
        <ele>4024.0</ele>
      </trkpt>
      <trkpt lat="45.942334" lon="7.293539">
        <time>1970-01-01T00:00:00+00:00</time>
        <ele>4023.0</ele>
      </trkpt>
      <trkpt lat="45.94244" lon="7.293562">
        <time>1970-01-01T00:00:00+00:00</time>
        <ele>4020.0</ele>
      </trkpt>
      <trkpt lat="45.943151" lon="7.293011">
        <time>1970-01-01T00:00:00+00:00</time>
        <ele>3998.0</ele>
      </trkpt>
      <trkpt lat="45.943187" lon="7.292685">
        <time>1970-01-01T00:00:00+00:00</time>
        <ele>3991.0</ele>
      </trkpt>
      <trkpt lat="45.943228" lon="7.292701">
        <time>1970-01-01T00:00:00+00:00</time>
        <ele>3990.0</ele>
      </trkpt>
      <trkpt lat="45.943181" lon="7.292644">
        <time>1970-01-01T00:00:00+00:00</time>
        <ele>3991.0</ele>
      </trkpt>
      <trkpt lat="45.943236" lon="7.292487">
        <time>1970-01-01T00:00:00+00:00</time>
        <ele>3984.0</ele>
      </trkpt>
      <trkpt lat="45.943264" lon="7.292532">
        <time>1970-01-01T00:00:00+00:00</time>
        <ele>3984.0</ele>
      </trkpt>
      <trkpt lat="45.943309" lon="7.292459">
        <time>1970-01-01T00:00:00+00:00</time>
        <ele>3978.0</ele>
      </trkpt>
      <trkpt lat="45.943045" lon="7.292475">
        <time>1970-01-01T00:00:00+00:00</time>
        <ele>3989.0</ele>
      </trkpt>
      <trkpt lat="45.943211" lon="7.292284">
        <time>1970-01-01T00:00:00+00:00</time>
        <ele>3975.0</ele>
      </trkpt>
      <trkpt lat="45.943194" lon="7.292217">
        <time>1970-01-01T00:00:00+00:00</time>
        <ele>3972.0</ele>
      </trkpt>
      <trkpt lat="45.943282" lon="7.292254">
        <time>1970-01-01T00:00:00+00:00</time>
        <ele>3969.0</ele>
      </trkpt>
      <trkpt lat="45.943314" lon="7.292184">
        <time>1970-01-01T00:00:00+00:00</time>
        <ele>3963.0</ele>
      </trkpt>
      <trkpt lat="45.943454" lon="7.292366">
        <time>1970-01-01T00:00:00+00:00</time>
        <ele>3966.0</ele>
      </trkpt>
      <trkpt lat="45.94348" lon="7.292299">
        <time>1970-01-01T00:00:00+00:00</time>
        <ele>3960.0</ele>
      </trkpt>
      <trkpt lat="45.943557" lon="7.292416">
        <time>1970-01-01T00:00:00+00:00</time>
        <ele>3963.0</ele>
      </trkpt>
      <trkpt lat="45.943586" lon="7.292615">
        <time>1970-01-01T00:00:00+00:00</time>
        <ele>3972.0</ele>
      </trkpt>
      <trkpt lat="45.943509" lon="7.29256">
        <time>1970-01-01T00:00:00+00:00</time>
        <ele>3974.0</ele>
      </trkpt>
      <trkpt lat="45.943613" lon="7.292505">
        <time>1970-01-01T00:00:00+00:00</time>
        <ele>3966.0</ele>
      </trkpt>
      <trkpt lat="45.943608" lon="7.292415">
        <time>1970-01-01T00:00:00+00:00</time>
        <ele>3961.0</ele>
      </trkpt>
      <trkpt lat="45.943652" lon="7.292543">
        <time>1970-01-01T00:00:00+00:00</time>
        <ele>3967.0</ele>
      </trkpt>
      <trkpt lat="45.943607" lon="7.292224">
        <time>1970-01-01T00:00:00+00:00</time>
        <ele>3950.0</ele>
      </trkpt>
      <trkpt lat="45.943623" lon="7.292442">
        <time>1970-01-01T00:00:00+00:00</time>
        <ele>3962.0</ele>
      </trkpt>
      <trkpt lat="45.944117" lon="7.292077">
        <time>1970-01-01T00:00:00+00:00</time>
        <ele>3914.0</ele>
      </trkpt>
      <trkpt lat="45.944056" lon="7.291873">
        <time>1970-01-01T00:00:00+00:00</time>
        <ele>3906.0</ele>
      </trkpt>
      <trkpt lat="45.944135" lon="7.291777">
        <time>1970-01-01T00:00:00+00:00</time>
        <ele>3896.0</ele>
      </trkpt>
      <trkpt lat="45.944114" lon="7.291401">
        <time>1970-01-01T00:00:00+00:00</time>
        <ele>3869.0</ele>
      </trkpt>
      <trkpt lat="45.9442" lon="7.291368">
        <time>1970-01-01T00:00:00+00:00</time>
        <ele>3863.0</ele>
      </trkpt>
      <trkpt lat="45.944369" lon="7.291654">
        <time>1970-01-01T00:00:00+00:00</time>
        <ele>3878.0</ele>
      </trkpt>
      <trkpt lat="45.944403" lon="7.291514">
        <time>1970-01-01T00:00:00+00:00</time>
        <ele>3866.0</ele>
      </trkpt>
      <trkpt lat="45.94487" lon="7.29169">
        <time>1970-01-01T00:00:00+00:00</time>
        <ele>3854.0</ele>
      </trkpt>
      <trkpt lat="45.944923" lon="7.291626">
        <time>1970-01-01T00:00:00+00:00</time>
        <ele>3847.0</ele>
      </trkpt>
      <trkpt lat="45.944864" lon="7.291681">
        <time>1970-01-01T00:00:00+00:00</time>
        <ele>3854.0</ele>
      </trkpt>
      <trkpt lat="45.9449" lon="7.291697">
        <time>1970-01-01T00:00:00+00:00</time>
        <ele>3853.0</ele>
      </trkpt>
      <trkpt lat="45.944809" lon="7.291716">
        <time>1970-01-01T00:00:00+00:00</time>
        <ele>3859.0</ele>
      </trkpt>
      <trkpt lat="45.944677" lon="7.291451">
        <time>1970-01-01T00:00:00+00:00</time>
        <ele>3848.0</ele>
      </trkpt>
      <trkpt lat="45.944714" lon="7.291297">
        <time>1970-01-01T00:00:00+00:00</time>
        <ele>3837.0</ele>
      </trkpt>
      <trkpt lat="45.944819" lon="7.291281">
        <time>1970-01-01T00:00:00+00:00</time>
        <ele>3833.0</ele>
      </trkpt>
      <trkpt lat="45.944787" lon="7.291038">
        <time>1970-01-01T00:00:00+00:00</time>
        <ele>3824.0</ele>
      </trkpt>
      <trkpt lat="45.945137" lon="7.290839">
        <time>1970-01-01T00:00:00+00:00</time>
        <ele>3803.0</ele>
      </trkpt>
      <trkpt lat="45.945148" lon="7.290716">
        <time>1970-01-01T00:00:00+00:00</time>
        <ele>3797.0</ele>
      </trkpt>
      <trkpt lat="45.945041" lon="7.290576">
        <time>1970-01-01T00:00:00+00:00</time>
        <ele>3793.0</ele>
      </trkpt>
      <trkpt lat="45.945155" lon="7.290393">
        <time>1970-01-01T00:00:00+00:00</time>
        <ele>3779.0</ele>
      </trkpt>
      <trkpt lat="45.944988" lon="7.290146">
        <time>1970-01-01T00:00:00+00:00</time>
        <ele>3773.0</ele>
      </trkpt>
      <trkpt lat="45.944982" lon="7.290031">
        <time>1970-01-01T00:00:00+00:00</time>
        <ele>3765.0</ele>
      </trkpt>
      <trkpt lat="45.945086" lon="7.290029">
        <time>1970-01-01T00:00:00+00:00</time>
        <ele>3761.0</ele>
      </trkpt>
      <trkpt lat="45.945093" lon="7.289909">
        <time>1970-01-01T00:00:00+00:00</time>
        <ele>3752.0</ele>
      </trkpt>
      <trkpt lat="45.944762" lon="7.28944">
        <time>1970-01-01T00:00:00+00:00</time>
        <ele>3738.0</ele>
      </trkpt>
      <trkpt lat="45.944877" lon="7.289304">
        <time>1970-01-01T00:00:00+00:00</time>
        <ele>3731.0</ele>
      </trkpt>
      <trkpt lat="45.9448" lon="7.28908">
        <time>1970-01-01T00:00:00+00:00</time>
        <ele>3718.0</ele>
      </trkpt>
      <trkpt lat="45.94488" lon="7.288999">
        <time>1970-01-01T00:00:00+00:00</time>
        <ele>3711.0</ele>
      </trkpt>
      <trkpt lat="45.944968" lon="7.289073">
        <time>1970-01-01T00:00:00+00:00</time>
        <ele>3713.0</ele>
      </trkpt>
      <trkpt lat="45.945054" lon="7.28901">
        <time>1970-01-01T00:00:00+00:00</time>
        <ele>3706.0</ele>
      </trkpt>
      <trkpt lat="45.945053" lon="7.288839">
        <time>1970-01-01T00:00:00+00:00</time>
        <ele>3693.0</ele>
      </trkpt>
      <trkpt lat="45.945123" lon="7.288709">
        <time>1970-01-01T00:00:00+00:00</time>
        <ele>3681.0</ele>
      </trkpt>
      <trkpt lat="45.945248" lon="7.288706">
        <time>1970-01-01T00:00:00+00:00</time>
        <ele>3675.0</ele>
      </trkpt>
      <trkpt lat="45.945124" lon="7.288341">
        <time>1970-01-01T00:00:00+00:00</time>
        <ele>3660.0</ele>
      </trkpt>
      <trkpt lat="45.945191" lon="7.288244">
        <time>1970-01-01T00:00:00+00:00</time>
        <ele>3652.0</ele>
      </trkpt>
      <trkpt lat="45.945408" lon="7.288289">
        <time>1970-01-01T00:00:00+00:00</time>
        <ele>3645.0</ele>
      </trkpt>
      <trkpt lat="45.945406" lon="7.288176">
        <time>1970-01-01T00:00:00+00:00</time>
        <ele>3640.0</ele>
      </trkpt>
      <trkpt lat="45.94527" lon="7.287895">
        <time>1970-01-01T00:00:00+00:00</time>
        <ele>3632.0</ele>
      </trkpt>
      <trkpt lat="45.945425" lon="7.287841">
        <time>1970-01-01T00:00:00+00:00</time>
        <ele>3625.0</ele>
      </trkpt>
      <trkpt lat="45.946127" lon="7.288189">
        <time>1970-01-01T00:00:00+00:00</time>
        <ele>3603.0</ele>
      </trkpt>
      <trkpt lat="45.946717" lon="7.288355">
        <time>1970-01-01T00:00:00+00:00</time>
        <ele>3592.0</ele>
      </trkpt>
      <trkpt lat="45.946608" lon="7.287955">
        <time>1970-01-01T00:00:00+00:00</time>
        <ele>3581.0</ele>
      </trkpt>
      <trkpt lat="45.94666" lon="7.287741">
        <time>1970-01-01T00:00:00+00:00</time>
        <ele>3576.0</ele>
      </trkpt>
      <trkpt lat="45.946849" lon="7.287738">
        <time>1970-01-01T00:00:00+00:00</time>
        <ele>3572.0</ele>
      </trkpt>
      <trkpt lat="45.947461" lon="7.287931">
        <time>1970-01-01T00:00:00+00:00</time>
        <ele>3562.0</ele>
      </trkpt>
      <trkpt lat="45.94747" lon="7.287699">
        <time>1970-01-01T00:00:00+00:00</time>
        <ele>3556.0</ele>
      </trkpt>
      <trkpt lat="45.947585" lon="7.287669">
        <time>1970-01-01T00:00:00+00:00</time>
        <ele>3552.0</ele>
      </trkpt>
      <trkpt lat="45.947727" lon="7.287404">
        <time>1970-01-01T00:00:00+00:00</time>
        <ele>3540.0</ele>
      </trkpt>
      <trkpt lat="45.94792" lon="7.287276">
        <time>1970-01-01T00:00:00+00:00</time>
        <ele>3530.0</ele>
      </trkpt>
      <trkpt lat="45.948552" lon="7.287653">
        <time>1970-01-01T00:00:00+00:00</time>
        <ele>3523.0</ele>
      </trkpt>
      <trkpt lat="45.9488" lon="7.287693">
        <time>1970-01-01T00:00:00+00:00</time>
        <ele>3518.0</ele>
      </trkpt>
      <trkpt lat="45.949032" lon="7.287558">
        <time>1970-01-01T00:00:00+00:00</time>
        <ele>3510.0</ele>
      </trkpt>
      <trkpt lat="45.949247" lon="7.28759">
        <time>1970-01-01T00:00:00+00:00</time>
        <ele>3507.0</ele>
      </trkpt>
      <trkpt lat="45.949228" lon="7.287447">
        <time>1970-01-01T00:00:00+00:00</time>
        <ele>3504.0</ele>
      </trkpt>
      <trkpt lat="45.949437" lon="7.286905">
        <time>1970-01-01T00:00:00+00:00</time>
        <ele>3484.0</ele>
      </trkpt>
      <trkpt lat="45.949546" lon="7.286856">
        <time>1970-01-01T00:00:00+00:00</time>
        <ele>3481.0</ele>
      </trkpt>
      <trkpt lat="45.94972" lon="7.286574">
        <time>1970-01-01T00:00:00+00:00</time>
        <ele>3470.0</ele>
      </trkpt>
      <trkpt lat="45.949898" lon="7.286545">
        <time>1970-01-01T00:00:00+00:00</time>
        <ele>3468.0</ele>
      </trkpt>
      <trkpt lat="45.950124" lon="7.286271">
        <time>1970-01-01T00:00:00+00:00</time>
        <ele>3456.0</ele>
      </trkpt>
      <trkpt lat="45.951063" lon="7.285941">
        <time>1970-01-01T00:00:00+00:00</time>
        <ele>3437.0</ele>
      </trkpt>
      <trkpt lat="45.951262" lon="7.285608">
        <time>1970-01-01T00:00:00+00:00</time>
        <ele>3428.0</ele>
      </trkpt>
      <trkpt lat="45.95149" lon="7.285522">
        <time>1970-01-01T00:00:00+00:00</time>
        <ele>3425.0</ele>
      </trkpt>
      <trkpt lat="45.95154" lon="7.285354">
        <time>1970-01-01T00:00:00+00:00</time>
        <ele>3420.0</ele>
      </trkpt>
      <trkpt lat="45.951508" lon="7.284861">
        <time>1970-01-01T00:00:00+00:00</time>
        <ele>3407.0</ele>
      </trkpt>
      <trkpt lat="45.951561" lon="7.284649">
        <time>1970-01-01T00:00:00+00:00</time>
        <ele>3402.0</ele>
      </trkpt>
      <trkpt lat="45.95151" lon="7.284089">
        <time>1970-01-01T00:00:00+00:00</time>
        <ele>3384.0</ele>
      </trkpt>
      <trkpt lat="45.951267" lon="7.283546">
        <time>1970-01-01T00:00:00+00:00</time>
        <ele>3364.0</ele>
      </trkpt>
      <trkpt lat="45.951111" lon="7.283367">
        <time>1970-01-01T00:00:00+00:00</time>
        <ele>3357.0</ele>
      </trkpt>
      <trkpt lat="45.951143" lon="7.283234">
        <time>1970-01-01T00:00:00+00:00</time>
        <ele>3353.0</ele>
      </trkpt>
      <trkpt lat="45.95123" lon="7.28323">
        <time>1970-01-01T00:00:00+00:00</time>
        <ele>3351.0</ele>
      </trkpt>
      <trkpt lat="45.95124" lon="7.283312">
        <time>1970-01-01T00:00:00+00:00</time>
        <ele>3354.0</ele>
      </trkpt>
      <trkpt lat="45.951224" lon="7.283063">
        <time>1970-01-01T00:00:00+00:00</time>
        <ele>3346.0</ele>
      </trkpt>
      <trkpt lat="45.951141" lon="7.282878">
        <time>1970-01-01T00:00:00+00:00</time>
        <ele>3342.0</ele>
      </trkpt>
      <trkpt lat="45.951198" lon="7.282577">
        <time>1970-01-01T00:00:00+00:00</time>
        <ele>3334.0</ele>
      </trkpt>
      <trkpt lat="45.951481" lon="7.282548">
        <time>1970-01-01T00:00:00+00:00</time>
        <ele>3325.0</ele>
      </trkpt>
      <trkpt lat="45.951481" lon="7.282326">
        <time>1970-01-01T00:00:00+00:00</time>
        <ele>3323.0</ele>
      </trkpt>
      <trkpt lat="45.95154" lon="7.282139">
        <time>1970-01-01T00:00:00+00:00</time>
        <ele>3318.0</ele>
      </trkpt>
      <trkpt lat="45.951657" lon="7.282151">
        <time>1970-01-01T00:00:00+00:00</time>
        <ele>3315.0</ele>
      </trkpt>
      <trkpt lat="45.951762" lon="7.282274">
        <time>1970-01-01T00:00:00+00:00</time>
        <ele>3314.0</ele>
      </trkpt>
      <trkpt lat="45.952096" lon="7.282076">
        <time>1970-01-01T00:00:00+00:00</time>
        <ele>3302.0</ele>
      </trkpt>
      <trkpt lat="45.952229" lon="7.282121">
        <time>1970-01-01T00:00:00+00:00</time>
        <ele>3299.0</ele>
      </trkpt>
      <trkpt lat="45.952376" lon="7.28245">
        <time>1970-01-01T00:00:00+00:00</time>
        <ele>3295.0</ele>
      </trkpt>
      <trkpt lat="45.952654" lon="7.282519">
        <time>1970-01-01T00:00:00+00:00</time>
        <ele>3285.0</ele>
      </trkpt>
      <trkpt lat="45.953063" lon="7.282833">
        <time>1970-01-01T00:00:00+00:00</time>
        <ele>3273.0</ele>
      </trkpt>
      <trkpt lat="45.953468" lon="7.283556">
        <time>1970-01-01T00:00:00+00:00</time>
        <ele>3264.0</ele>
      </trkpt>
      <trkpt lat="45.953669" lon="7.283717">
        <time>1970-01-01T00:00:00+00:00</time>
        <ele>3258.0</ele>
      </trkpt>
      <trkpt lat="45.953806" lon="7.28394">
        <time>1970-01-01T00:00:00+00:00</time>
        <ele>3254.0</ele>
      </trkpt>
      <trkpt lat="45.953921" lon="7.284299">
        <time>1970-01-01T00:00:00+00:00</time>
        <ele>3249.0</ele>
      </trkpt>
      <trkpt lat="45.954333" lon="7.284351">
        <time>1970-01-01T00:00:00+00:00</time>
        <ele>3241.0</ele>
      </trkpt>
      <trkpt lat="45.954334" lon="7.28477">
        <time>1970-01-01T00:00:00+00:00</time>
        <ele>3236.0</ele>
      </trkpt>
      <trkpt lat="45.954623" lon="7.284871">
        <time>1970-01-01T00:00:00+00:00</time>
        <ele>3230.0</ele>
      </trkpt>
      <trkpt lat="45.954584" lon="7.284885">
        <time>1970-01-01T00:00:00+00:00</time>
        <ele>3231.0</ele>
      </trkpt>
      <trkpt lat="45.954603" lon="7.284995">
        <time>1970-01-01T00:00:00+00:00</time>
        <ele>3229.0</ele>
      </trkpt>
      <trkpt lat="45.95476" lon="7.285118">
        <time>1970-01-01T00:00:00+00:00</time>
        <ele>3224.0</ele>
      </trkpt>
      <trkpt lat="45.95559" lon="7.285455">
        <time>1970-01-01T00:00:00+00:00</time>
        <ele>3204.0</ele>
      </trkpt>
      <trkpt lat="45.956818" lon="7.286382">
        <time>1970-01-01T00:00:00+00:00</time>
        <ele>3182.0</ele>
      </trkpt>
      <trkpt lat="45.956981" lon="7.286413">
        <time>1970-01-01T00:00:00+00:00</time>
        <ele>3179.0</ele>
      </trkpt>
      <trkpt lat="45.957153" lon="7.286606">
        <time>1970-01-01T00:00:00+00:00</time>
        <ele>3173.0</ele>
      </trkpt>
      <trkpt lat="45.957382" lon="7.286629">
        <time>1970-01-01T00:00:00+00:00</time>
        <ele>3169.0</ele>
      </trkpt>
      <trkpt lat="45.957461" lon="7.286782">
        <time>1970-01-01T00:00:00+00:00</time>
        <ele>3163.0</ele>
      </trkpt>
      <trkpt lat="45.957606" lon="7.286892">
        <time>1970-01-01T00:00:00+00:00</time>
        <ele>3156.0</ele>
      </trkpt>
      <trkpt lat="45.95856" lon="7.287129">
        <time>1970-01-01T00:00:00+00:00</time>
        <ele>3130.0</ele>
      </trkpt>
      <trkpt lat="45.959156" lon="7.287416">
        <time>1970-01-01T00:00:00+00:00</time>
        <ele>3120.0</ele>
      </trkpt>
      <trkpt lat="45.960001" lon="7.288118">
        <time>1970-01-01T00:00:00+00:00</time>
        <ele>3109.0</ele>
      </trkpt>
      <trkpt lat="45.961584" lon="7.289694">
        <time>1970-01-01T00:00:00+00:00</time>
        <ele>3089.0</ele>
      </trkpt>
      <trkpt lat="45.962335" lon="7.29022">
        <time>1970-01-01T00:00:00+00:00</time>
        <ele>3082.0</ele>
      </trkpt>
      <trkpt lat="45.963625" lon="7.290843">
        <time>1970-01-01T00:00:00+00:00</time>
        <ele>3059.0</ele>
      </trkpt>
      <trkpt lat="45.965609" lon="7.292267">
        <time>1970-01-01T00:00:00+00:00</time>
        <ele>3030.0</ele>
      </trkpt>
      <trkpt lat="45.966527" lon="7.293315">
        <time>1970-01-01T00:00:00+00:00</time>
        <ele>3014.0</ele>
      </trkpt>
      <trkpt lat="45.967312" lon="7.293919">
        <time>1970-01-01T00:00:00+00:00</time>
        <ele>2996.0</ele>
      </trkpt>
      <trkpt lat="45.968711" lon="7.294758">
        <time>1970-01-01T00:00:00+00:00</time>
        <ele>2975.0</ele>
      </trkpt>
      <trkpt lat="45.971302" lon="7.296067">
        <time>1970-01-01T00:00:00+00:00</time>
        <ele>2949.0</ele>
      </trkpt>
      <trkpt lat="45.972124" lon="7.296291">
        <time>1970-01-01T00:00:00+00:00</time>
        <ele>2935.0</ele>
      </trkpt>
      <trkpt lat="45.973106" lon="7.296697">
        <time>1970-01-01T00:00:00+00:00</time>
        <ele>2917.0</ele>
      </trkpt>
      <trkpt lat="45.973459" lon="7.296738">
        <time>1970-01-01T00:00:00+00:00</time>
        <ele>2909.0</ele>
      </trkpt>
      <trkpt lat="45.974194" lon="7.297205">
        <time>1970-01-01T00:00:00+00:00</time>
        <ele>2891.0</ele>
      </trkpt>
      <trkpt lat="45.974352" lon="7.297173">
        <time>1970-01-01T00:00:00+00:00</time>
        <ele>2888.0</ele>
      </trkpt>
      <trkpt lat="45.974648" lon="7.297456">
        <time>1970-01-01T00:00:00+00:00</time>
        <ele>2881.0</ele>
      </trkpt>
      <trkpt lat="45.974738" lon="7.297382">
        <time>1970-01-01T00:00:00+00:00</time>
        <ele>2879.0</ele>
      </trkpt>
      <trkpt lat="45.974842" lon="7.29745">
        <time>1970-01-01T00:00:00+00:00</time>
        <ele>2876.0</ele>
      </trkpt>
      <trkpt lat="45.974892" lon="7.297629">
        <time>1970-01-01T00:00:00+00:00</time>
        <ele>2873.0</ele>
      </trkpt>
      <trkpt lat="45.975178" lon="7.29752">
        <time>1970-01-01T00:00:00+00:00</time>
        <ele>2865.0</ele>
      </trkpt>
      <trkpt lat="45.97527" lon="7.297578">
        <time>1970-01-01T00:00:00+00:00</time>
        <ele>2861.0</ele>
      </trkpt>
      <trkpt lat="45.975422" lon="7.29787">
        <time>1970-01-01T00:00:00+00:00</time>
        <ele>2852.0</ele>
      </trkpt>
      <trkpt lat="45.975463" lon="7.297678">
        <time>1970-01-01T00:00:00+00:00</time>
        <ele>2852.0</ele>
      </trkpt>
      <trkpt lat="45.975425" lon="7.297612">
        <time>1970-01-01T00:00:00+00:00</time>
        <ele>2854.0</ele>
      </trkpt>
      <trkpt lat="45.975754" lon="7.298028">
        <time>1970-01-01T00:00:00+00:00</time>
        <ele>2842.0</ele>
      </trkpt>
      <trkpt lat="45.976135" lon="7.298212">
        <time>1970-01-01T00:00:00+00:00</time>
        <ele>2830.0</ele>
      </trkpt>
      <trkpt lat="45.97619" lon="7.298378">
        <time>1970-01-01T00:00:00+00:00</time>
        <ele>2830.0</ele>
      </trkpt>
      <trkpt lat="45.976487" lon="7.298363">
        <time>1970-01-01T00:00:00+00:00</time>
        <ele>2818.0</ele>
      </trkpt>
      <trkpt lat="45.976672" lon="7.298566">
        <time>1970-01-01T00:00:00+00:00</time>
        <ele>2814.0</ele>
      </trkpt>
      <trkpt lat="45.977058" lon="7.298367">
        <time>1970-01-01T00:00:00+00:00</time>
        <ele>2805.0</ele>
      </trkpt>
      <trkpt lat="45.977205" lon="7.298344">
        <time>1970-01-01T00:00:00+00:00</time>
        <ele>2803.0</ele>
      </trkpt>
      <trkpt lat="45.977325" lon="7.298546">
        <time>1970-01-01T00:00:00+00:00</time>
        <ele>2801.0</ele>
      </trkpt>
      <trkpt lat="45.977398" lon="7.298421">
        <time>1970-01-01T00:00:00+00:00</time>
        <ele>2798.0</ele>
      </trkpt>
      <trkpt lat="45.977646" lon="7.29885">
        <time>1970-01-01T00:00:00+00:00</time>
        <ele>2790.0</ele>
      </trkpt>
      <trkpt lat="45.97775" lon="7.299224">
        <time>1970-01-01T00:00:00+00:00</time>
        <ele>2786.0</ele>
      </trkpt>
      <trkpt lat="45.977985" lon="7.299009">
        <time>1970-01-01T00:00:00+00:00</time>
        <ele>2777.0</ele>
      </trkpt>
      <trkpt lat="45.978098" lon="7.299026">
        <time>1970-01-01T00:00:00+00:00</time>
        <ele>2773.0</ele>
      </trkpt>
      <trkpt lat="45.978344" lon="7.2994">
        <time>1970-01-01T00:00:00+00:00</time>
        <ele>2763.0</ele>
      </trkpt>
      <trkpt lat="45.978573" lon="7.299351">
        <time>1970-01-01T00:00:00+00:00</time>
        <ele>2752.0</ele>
      </trkpt>
      <trkpt lat="45.978639" lon="7.299525">
        <time>1970-01-01T00:00:00+00:00</time>
        <ele>2750.0</ele>
      </trkpt>
      <trkpt lat="45.978822" lon="7.299598">
        <time>1970-01-01T00:00:00+00:00</time>
        <ele>2743.0</ele>
      </trkpt>
      <trkpt lat="45.979052" lon="7.299519">
        <time>1970-01-01T00:00:00+00:00</time>
        <ele>2735.0</ele>
      </trkpt>
      <trkpt lat="45.980084" lon="7.299445">
        <time>1970-01-01T00:00:00+00:00</time>
        <ele>2709.0</ele>
      </trkpt>
      <trkpt lat="45.982161" lon="7.298606">
        <time>1970-01-01T00:00:00+00:00</time>
        <ele>2680.0</ele>
      </trkpt>
      <trkpt lat="45.983427" lon="7.298439">
        <time>1970-01-01T00:00:00+00:00</time>
        <ele>2671.0</ele>
      </trkpt>
      <trkpt lat="45.984318" lon="7.298558">
        <time>1970-01-01T00:00:00+00:00</time>
        <ele>2667.0</ele>
      </trkpt>
      <trkpt lat="45.985622" lon="7.2982">
        <time>1970-01-01T00:00:00+00:00</time>
        <ele>2657.0</ele>
      </trkpt>
      <trkpt lat="45.986122" lon="7.297985">
        <time>1970-01-01T00:00:00+00:00</time>
        <ele>2653.0</ele>
      </trkpt>
      <trkpt lat="45.986884" lon="7.297469">
        <time>1970-01-01T00:00:00+00:00</time>
        <ele>2646.0</ele>
      </trkpt>
      <trkpt lat="45.988152" lon="7.296363">
        <time>1970-01-01T00:00:00+00:00</time>
        <ele>2627.0</ele>
      </trkpt>
      <trkpt lat="45.989779" lon="7.295139">
        <time>1970-01-01T00:00:00+00:00</time>
        <ele>2611.0</ele>
      </trkpt>
      <trkpt lat="45.990758" lon="7.294535">
        <time>1970-01-01T00:00:00+00:00</time>
        <ele>2604.0</ele>
      </trkpt>
      <trkpt lat="45.992224" lon="7.293033">
        <time>1970-01-01T00:00:00+00:00</time>
        <ele>2587.0</ele>
      </trkpt>
      <trkpt lat="45.992907" lon="7.292711">
        <time>1970-01-01T00:00:00+00:00</time>
        <ele>2580.0</ele>
      </trkpt>
      <trkpt lat="45.993813" lon="7.291874">
        <time>1970-01-01T00:00:00+00:00</time>
        <ele>2561.0</ele>
      </trkpt>
      <trkpt lat="45.994426" lon="7.291562">
        <time>1970-01-01T00:00:00+00:00</time>
        <ele>2548.0</ele>
      </trkpt>
      <trkpt lat="45.995084" lon="7.29142">
        <time>1970-01-01T00:00:00+00:00</time>
        <ele>2534.0</ele>
      </trkpt>
      <trkpt lat="45.996579" lon="7.291769">
        <time>1970-01-01T00:00:00+00:00</time>
        <ele>2506.0</ele>
      </trkpt>
      <trkpt lat="45.996985" lon="7.29201">
        <time>1970-01-01T00:00:00+00:00</time>
        <ele>2499.0</ele>
      </trkpt>
      <trkpt lat="45.997273" lon="7.292422">
        <time>1970-01-01T00:00:00+00:00</time>
        <ele>2493.0</ele>
      </trkpt>
      <trkpt lat="45.997523" lon="7.292655">
        <time>1970-01-01T00:00:00+00:00</time>
        <ele>2487.0</ele>
      </trkpt>
      <trkpt lat="45.997766" lon="7.292738">
        <time>1970-01-01T00:00:00+00:00</time>
        <ele>2483.0</ele>
      </trkpt>
      <trkpt lat="45.998118" lon="7.292741">
        <time>1970-01-01T00:00:00+00:00</time>
        <ele>2474.0</ele>
      </trkpt>
      <trkpt lat="45.998607" lon="7.292584">
        <time>1970-01-01T00:00:00+00:00</time>
        <ele>2467.0</ele>
      </trkpt>
      <trkpt lat="46.000371" lon="7.29173">
        <time>1970-01-01T00:00:00+00:00</time>
        <ele>2444.0</ele>
      </trkpt>
      <trkpt lat="46.000912" lon="7.291385">
        <time>1970-01-01T00:00:00+00:00</time>
        <ele>2434.0</ele>
      </trkpt>
      <trkpt lat="46.001493" lon="7.290869">
        <time>1970-01-01T00:00:00+00:00</time>
        <ele>2422.0</ele>
      </trkpt>
      <trkpt lat="46.002407" lon="7.290398">
        <time>1970-01-01T00:00:00+00:00</time>
        <ele>2411.0</ele>
      </trkpt>
      <trkpt lat="46.002662" lon="7.290135">
        <time>1970-01-01T00:00:00+00:00</time>
        <ele>2410.0</ele>
      </trkpt>
      <trkpt lat="46.003008" lon="7.289978">
        <time>1970-01-01T00:00:00+00:00</time>
        <ele>2411.0</ele>
      </trkpt>
      <trkpt lat="46.004089" lon="7.290201">
        <time>1970-01-01T00:00:00+00:00</time>
        <ele>2395.0</ele>
      </trkpt>
      <trkpt lat="46.004297" lon="7.290391">
        <time>1970-01-01T00:00:00+00:00</time>
        <ele>2393.0</ele>
      </trkpt>
      <trkpt lat="46.004622" lon="7.290516">
        <time>1970-01-01T00:00:00+00:00</time>
        <ele>2388.0</ele>
      </trkpt>
      <trkpt lat="46.005354" lon="7.291023">
        <time>1970-01-01T00:00:00+00:00</time>
        <ele>2378.0</ele>
      </trkpt>
      <trkpt lat="46.005581" lon="7.291609">
        <time>1970-01-01T00:00:00+00:00</time>
        <ele>2386.0</ele>
      </trkpt>
      <trkpt lat="46.006226" lon="7.292257">
        <time>1970-01-01T00:00:00+00:00</time>
        <ele>2378.0</ele>
      </trkpt>
      <trkpt lat="46.006342" lon="7.292518">
        <time>1970-01-01T00:00:00+00:00</time>
        <ele>2383.0</ele>
      </trkpt>
      <trkpt lat="46.006667" lon="7.292912">
        <time>1970-01-01T00:00:00+00:00</time>
        <ele>2373.0</ele>
      </trkpt>
      <trkpt lat="46.006683" lon="7.293052">
        <time>1970-01-01T00:00:00+00:00</time>
        <ele>2378.0</ele>
      </trkpt>
      <trkpt lat="46.006899" lon="7.293411">
        <time>1970-01-01T00:00:00+00:00</time>
        <ele>2381.0</ele>
      </trkpt>
      <trkpt lat="46.007853" lon="7.294847">
        <time>1970-01-01T00:00:00+00:00</time>
        <ele>2360.0</ele>
      </trkpt>
      <trkpt lat="46.008071" lon="7.294905">
        <time>1970-01-01T00:00:00+00:00</time>
        <ele>2355.0</ele>
      </trkpt>
      <trkpt lat="46.008333" lon="7.295313">
        <time>1970-01-01T00:00:00+00:00</time>
        <ele>2349.0</ele>
      </trkpt>
      <trkpt lat="46.008689" lon="7.295516">
        <time>1970-01-01T00:00:00+00:00</time>
        <ele>2339.0</ele>
      </trkpt>
      <trkpt lat="46.008851" lon="7.295806">
        <time>1970-01-01T00:00:00+00:00</time>
        <ele>2334.0</ele>
      </trkpt>
      <trkpt lat="46.008853" lon="7.296029">
        <time>1970-01-01T00:00:00+00:00</time>
        <ele>2330.0</ele>
      </trkpt>
      <trkpt lat="46.00909" lon="7.29652">
        <time>1970-01-01T00:00:00+00:00</time>
        <ele>2317.0</ele>
      </trkpt>
      <trkpt lat="46.009303" lon="7.296752">
        <time>1970-01-01T00:00:00+00:00</time>
        <ele>2311.0</ele>
      </trkpt>
      <trkpt lat="46.0103" lon="7.297434">
        <time>1970-01-01T00:00:00+00:00</time>
        <ele>2280.0</ele>
      </trkpt>
      <trkpt lat="46.010524" lon="7.297846">
        <time>1970-01-01T00:00:00+00:00</time>
        <ele>2276.0</ele>
      </trkpt>
      <trkpt lat="46.012303" lon="7.29916">
        <time>1970-01-01T00:00:00+00:00</time>
        <ele>2240.0</ele>
      </trkpt>
      <trkpt lat="46.012605" lon="7.29923">
        <time>1970-01-01T00:00:00+00:00</time>
        <ele>2234.0</ele>
      </trkpt>
      <trkpt lat="46.013055" lon="7.299515">
        <time>1970-01-01T00:00:00+00:00</time>
        <ele>2229.0</ele>
      </trkpt>
      <trkpt lat="46.013905" lon="7.299587">
        <time>1970-01-01T00:00:00+00:00</time>
        <ele>2223.0</ele>
      </trkpt>
      <trkpt lat="46.014039" lon="7.299778">
        <time>1970-01-01T00:00:00+00:00</time>
        <ele>2225.0</ele>
      </trkpt>
      <trkpt lat="46.014666" lon="7.3003">
        <time>1970-01-01T00:00:00+00:00</time>
        <ele>2216.0</ele>
      </trkpt>
      <trkpt lat="46.01482" lon="7.300317">
        <time>1970-01-01T00:00:00+00:00</time>
        <ele>2215.0</ele>
      </trkpt>
      <trkpt lat="46.014969" lon="7.300242">
        <time>1970-01-01T00:00:00+00:00</time>
        <ele>2211.0</ele>
      </trkpt>
      <trkpt lat="46.015255" lon="7.300323">
        <time>1970-01-01T00:00:00+00:00</time>
        <ele>2220.0</ele>
      </trkpt>
      <trkpt lat="46.015305" lon="7.30015">
        <time>1970-01-01T00:00:00+00:00</time>
        <ele>2211.0</ele>
      </trkpt>
      <trkpt lat="46.015397" lon="7.300049">
        <time>1970-01-01T00:00:00+00:00</time>
        <ele>2208.0</ele>
      </trkpt>
      <trkpt lat="46.015837" lon="7.299748">
        <time>1970-01-01T00:00:00+00:00</time>
        <ele>2205.0</ele>
      </trkpt>
      <trkpt lat="46.016148" lon="7.299694">
        <time>1970-01-01T00:00:00+00:00</time>
        <ele>2208.0</ele>
      </trkpt>
      <trkpt lat="46.016288" lon="7.299534">
        <time>1970-01-01T00:00:00+00:00</time>
        <ele>2200.0</ele>
      </trkpt>
      <trkpt lat="46.016537" lon="7.299536">
        <time>1970-01-01T00:00:00+00:00</time>
        <ele>2201.0</ele>
      </trkpt>
      <trkpt lat="46.016838" lon="7.299436">
        <time>1970-01-01T00:00:00+00:00</time>
        <ele>2198.0</ele>
      </trkpt>
      <trkpt lat="46.017072" lon="7.299463">
        <time>1970-01-01T00:00:00+00:00</time>
        <ele>2206.0</ele>
      </trkpt>
      <trkpt lat="46.017533" lon="7.299223">
        <time>1970-01-01T00:00:00+00:00</time>
        <ele>2201.0</ele>
      </trkpt>
      <trkpt lat="46.018281" lon="7.298658">
        <time>1970-01-01T00:00:00+00:00</time>
        <ele>2195.0</ele>
      </trkpt>
      <trkpt lat="46.018328" lon="7.298405">
        <time>1970-01-01T00:00:00+00:00</time>
        <ele>2180.0</ele>
      </trkpt>
      <trkpt lat="46.018555" lon="7.298255">
        <time>1970-01-01T00:00:00+00:00</time>
        <ele>2186.0</ele>
      </trkpt>
      <trkpt lat="46.018725" lon="7.297897">
        <time>1970-01-01T00:00:00+00:00</time>
        <ele>2185.0</ele>
      </trkpt>
      <trkpt lat="46.0188" lon="7.297403">
        <time>1970-01-01T00:00:00+00:00</time>
        <ele>2174.0</ele>
      </trkpt>
      <trkpt lat="46.01899" lon="7.297053">
        <time>1970-01-01T00:00:00+00:00</time>
        <ele>2177.0</ele>
      </trkpt>
      <trkpt lat="46.019131" lon="7.296993">
        <time>1970-01-01T00:00:00+00:00</time>
        <ele>2184.0</ele>
      </trkpt>
      <trkpt lat="46.019279" lon="7.296781">
        <time>1970-01-01T00:00:00+00:00</time>
        <ele>2183.0</ele>
      </trkpt>
      <trkpt lat="46.019451" lon="7.296389">
        <time>1970-01-01T00:00:00+00:00</time>
        <ele>2169.0</ele>
      </trkpt>
      <trkpt lat="46.019639" lon="7.296355">
        <time>1970-01-01T00:00:00+00:00</time>
        <ele>2176.0</ele>
      </trkpt>
      <trkpt lat="46.019981" lon="7.295936">
        <time>1970-01-01T00:00:00+00:00</time>
        <ele>2166.0</ele>
      </trkpt>
      <trkpt lat="46.020042" lon="7.295824">
        <time>1970-01-01T00:00:00+00:00</time>
        <ele>2164.0</ele>
      </trkpt>
      <trkpt lat="46.020054" lon="7.295622">
        <time>1970-01-01T00:00:00+00:00</time>
        <ele>2160.0</ele>
      </trkpt>
      <trkpt lat="46.020182" lon="7.295514">
        <time>1970-01-01T00:00:00+00:00</time>
        <ele>2165.0</ele>
      </trkpt>
      <trkpt lat="46.020357" lon="7.295162">
        <time>1970-01-01T00:00:00+00:00</time>
        <ele>2159.0</ele>
      </trkpt>
      <trkpt lat="46.020584" lon="7.295014">
        <time>1970-01-01T00:00:00+00:00</time>
        <ele>2161.0</ele>
      </trkpt>
      <trkpt lat="46.020739" lon="7.294653">
        <time>1970-01-01T00:00:00+00:00</time>
        <ele>2155.0</ele>
      </trkpt>
      <trkpt lat="46.020975" lon="7.294483">
        <time>1970-01-01T00:00:00+00:00</time>
        <ele>2155.0</ele>
      </trkpt>
      <trkpt lat="46.021119" lon="7.294522">
        <time>1970-01-01T00:00:00+00:00</time>
        <ele>2159.0</ele>
      </trkpt>
      <trkpt lat="46.02165" lon="7.294266">
        <time>1970-01-01T00:00:00+00:00</time>
        <ele>2153.0</ele>
      </trkpt>
      <trkpt lat="46.021932" lon="7.294319">
        <time>1970-01-01T00:00:00+00:00</time>
        <ele>2155.0</ele>
      </trkpt>
      <trkpt lat="46.022169" lon="7.294162">
        <time>1970-01-01T00:00:00+00:00</time>
        <ele>2151.0</ele>
      </trkpt>
      <trkpt lat="46.022213" lon="7.293774">
        <time>1970-01-01T00:00:00+00:00</time>
        <ele>2145.0</ele>
      </trkpt>
      <trkpt lat="46.022342" lon="7.293772">
        <time>1970-01-01T00:00:00+00:00</time>
        <ele>2143.0</ele>
      </trkpt>
      <trkpt lat="46.022377" lon="7.29342">
        <time>1970-01-01T00:00:00+00:00</time>
        <ele>2132.0</ele>
      </trkpt>
      <trkpt lat="46.022435" lon="7.293369">
        <time>1970-01-01T00:00:00+00:00</time>
        <ele>2128.0</ele>
      </trkpt>
      <trkpt lat="46.022528" lon="7.293457">
        <time>1970-01-01T00:00:00+00:00</time>
        <ele>2129.0</ele>
      </trkpt>
      <trkpt lat="46.022578" lon="7.293332">
        <time>1970-01-01T00:00:00+00:00</time>
        <ele>2122.0</ele>
      </trkpt>
      <trkpt lat="46.022771" lon="7.293377">
        <time>1970-01-01T00:00:00+00:00</time>
        <ele>2117.0</ele>
      </trkpt>
      <trkpt lat="46.022846" lon="7.293316">
        <time>1970-01-01T00:00:00+00:00</time>
        <ele>2113.0</ele>
      </trkpt>
      <trkpt lat="46.023013" lon="7.292881">
        <time>1970-01-01T00:00:00+00:00</time>
        <ele>2096.0</ele>
      </trkpt>
      <trkpt lat="46.023118" lon="7.292816">
        <time>1970-01-01T00:00:00+00:00</time>
        <ele>2094.0</ele>
      </trkpt>
      <trkpt lat="46.024063" lon="7.292803">
        <time>1970-01-01T00:00:00+00:00</time>
        <ele>2086.0</ele>
      </trkpt>
      <trkpt lat="46.024371" lon="7.292698">
        <time>1970-01-01T00:00:00+00:00</time>
        <ele>2082.0</ele>
      </trkpt>
      <trkpt lat="46.024474" lon="7.292496">
        <time>1970-01-01T00:00:00+00:00</time>
        <ele>2077.0</ele>
      </trkpt>
      <trkpt lat="46.024504" lon="7.292264">
        <time>1970-01-01T00:00:00+00:00</time>
        <ele>2073.0</ele>
      </trkpt>
      <trkpt lat="46.024594" lon="7.292134">
        <time>1970-01-01T00:00:00+00:00</time>
        <ele>2069.0</ele>
      </trkpt>
      <trkpt lat="46.024846" lon="7.292193">
        <time>1970-01-01T00:00:00+00:00</time>
        <ele>2065.0</ele>
      </trkpt>
      <trkpt lat="46.025031" lon="7.291797">
        <time>1970-01-01T00:00:00+00:00</time>
        <ele>2054.0</ele>
      </trkpt>
      <trkpt lat="46.025721" lon="7.291827">
        <time>1970-01-01T00:00:00+00:00</time>
        <ele>2040.0</ele>
      </trkpt>
      <trkpt lat="46.026316" lon="7.292153">
        <time>1970-01-01T00:00:00+00:00</time>
        <ele>2026.0</ele>
      </trkpt>
      <trkpt lat="46.026431" lon="7.291934">
        <time>1970-01-01T00:00:00+00:00</time>
        <ele>2017.0</ele>
      </trkpt>
      <trkpt lat="46.026435" lon="7.291817">
        <time>1970-01-01T00:00:00+00:00</time>
        <ele>2016.0</ele>
      </trkpt>
      <trkpt lat="46.026567" lon="7.291644">
        <time>1970-01-01T00:00:00+00:00</time>
        <ele>2008.0</ele>
      </trkpt>
      <trkpt lat="46.026575" lon="7.291514">
        <time>1970-01-01T00:00:00+00:00</time>
        <ele>2005.0</ele>
      </trkpt>
      <trkpt lat="46.026626" lon="7.291472">
        <time>1970-01-01T00:00:00+00:00</time>
        <ele>2001.0</ele>
      </trkpt>
      <trkpt lat="46.026693" lon="7.291536">
        <time>1970-01-01T00:00:00+00:00</time>
        <ele>1999.0</ele>
      </trkpt>
      <trkpt lat="46.02678" lon="7.291389">
        <time>1970-01-01T00:00:00+00:00</time>
        <ele>1991.0</ele>
      </trkpt>
      <trkpt lat="46.026821" lon="7.291446">
        <time>1970-01-01T00:00:00+00:00</time>
        <ele>1991.0</ele>
      </trkpt>
      <trkpt lat="46.02705" lon="7.291162">
        <time>1970-01-01T00:00:00+00:00</time>
        <ele>1971.0</ele>
      </trkpt>
      <trkpt lat="46.027225" lon="7.291307">
        <time>1970-01-01T00:00:00+00:00</time>
        <ele>1962.0</ele>
      </trkpt>
      <trkpt lat="46.027321" lon="7.291635">
        <time>1970-01-01T00:00:00+00:00</time>
        <ele>1959.0</ele>
      </trkpt>
      <trkpt lat="46.027392" lon="7.291702">
        <time>1970-01-01T00:00:00+00:00</time>
        <ele>1953.0</ele>
      </trkpt>
      <trkpt lat="46.027358" lon="7.291821">
        <time>1970-01-01T00:00:00+00:00</time>
        <ele>1956.0</ele>
      </trkpt>
      <trkpt lat="46.027388" lon="7.292">
        <time>1970-01-01T00:00:00+00:00</time>
        <ele>1951.0</ele>
      </trkpt>
      <trkpt lat="46.027442" lon="7.291974">
        <time>1970-01-01T00:00:00+00:00</time>
        <ele>1946.0</ele>
      </trkpt>
      <trkpt lat="46.027375" lon="7.292171">
        <time>1970-01-01T00:00:00+00:00</time>
        <ele>1950.0</ele>
      </trkpt>
      <trkpt lat="46.027384" lon="7.292424">
        <time>1970-01-01T00:00:00+00:00</time>
        <ele>1944.0</ele>
      </trkpt>
      <trkpt lat="46.027508" lon="7.292297">
        <time>1970-01-01T00:00:00+00:00</time>
        <ele>1933.0</ele>
      </trkpt>
      <trkpt lat="46.02757" lon="7.292363">
        <time>1970-01-01T00:00:00+00:00</time>
        <ele>1924.0</ele>
      </trkpt>
      <trkpt lat="46.027536" lon="7.292833">
        <time>1970-01-01T00:00:00+00:00</time>
        <ele>1918.0</ele>
      </trkpt>
      <trkpt lat="46.027649" lon="7.292833">
        <time>1970-01-01T00:00:00+00:00</time>
        <ele>1905.0</ele>
      </trkpt>
      <trkpt lat="46.0277" lon="7.293116">
        <time>1970-01-01T00:00:00+00:00</time>
        <ele>1893.0</ele>
      </trkpt>
      <trkpt lat="46.027651" lon="7.293501">
        <time>1970-01-01T00:00:00+00:00</time>
        <ele>1886.0</ele>
      </trkpt>
      <trkpt lat="46.027265" lon="7.294455">
        <time>1970-01-01T00:00:00+00:00</time>
        <ele>1890.0</ele>
      </trkpt>
      <trkpt lat="46.027403" lon="7.29487">
        <time>1970-01-01T00:00:00+00:00</time>
        <ele>1875.0</ele>
      </trkpt>
      <trkpt lat="46.027284" lon="7.296334">
        <time>1970-01-01T00:00:00+00:00</time>
        <ele>1864.0</ele>
      </trkpt>
      <trkpt lat="46.027294" lon="7.296765">
        <time>1970-01-01T00:00:00+00:00</time>
        <ele>1861.0</ele>
      </trkpt>
      <trkpt lat="46.027378" lon="7.297087">
        <time>1970-01-01T00:00:00+00:00</time>
        <ele>1854.0</ele>
      </trkpt>
      <trkpt lat="46.027327" lon="7.297413">
        <time>1970-01-01T00:00:00+00:00</time>
        <ele>1853.0</ele>
      </trkpt>
      <trkpt lat="46.02734" lon="7.298028">
        <time>1970-01-01T00:00:00+00:00</time>
        <ele>1847.0</ele>
      </trkpt>
      <trkpt lat="46.027499" lon="7.298818">
        <time>1970-01-01T00:00:00+00:00</time>
        <ele>1838.0</ele>
      </trkpt>
      <trkpt lat="46.027614" lon="7.298655">
        <time>1970-01-01T00:00:00+00:00</time>
        <ele>1835.0</ele>
      </trkpt>
      <trkpt lat="46.027636" lon="7.298753">
        <time>1970-01-01T00:00:00+00:00</time>
        <ele>1834.0</ele>
      </trkpt>
      <trkpt lat="46.027777" lon="7.298672">
        <time>1970-01-01T00:00:00+00:00</time>
        <ele>1829.0</ele>
      </trkpt>
      <trkpt lat="46.027844" lon="7.298574">
        <time>1970-01-01T00:00:00+00:00</time>
        <ele>1826.0</ele>
      </trkpt>
      <trkpt lat="46.02788" lon="7.298399">
        <time>1970-01-01T00:00:00+00:00</time>
        <ele>1824.0</ele>
      </trkpt>
      <trkpt lat="46.027842" lon="7.298384">
        <time>1970-01-01T00:00:00+00:00</time>
        <ele>1825.0</ele>
      </trkpt>
      <trkpt lat="46.027955" lon="7.298281">
        <time>1970-01-01T00:00:00+00:00</time>
        <ele>1820.0</ele>
      </trkpt>
      <trkpt lat="46.027974" lon="7.298179">
        <time>1970-01-01T00:00:00+00:00</time>
        <ele>1819.0</ele>
      </trkpt>
      <trkpt lat="46.02811" lon="7.298089">
        <time>1970-01-01T00:00:00+00:00</time>
        <ele>1812.0</ele>
      </trkpt>
      <trkpt lat="46.028224" lon="7.298474">
        <time>1970-01-01T00:00:00+00:00</time>
        <ele>1808.0</ele>
      </trkpt>
      <trkpt lat="46.028289" lon="7.298959">
        <time>1970-01-01T00:00:00+00:00</time>
        <ele>1803.0</ele>
      </trkpt>
      <trkpt lat="46.028397" lon="7.299121">
        <time>1970-01-01T00:00:00+00:00</time>
        <ele>1794.0</ele>
      </trkpt>
      <trkpt lat="46.028438" lon="7.298938">
        <time>1970-01-01T00:00:00+00:00</time>
        <ele>1790.0</ele>
      </trkpt>
      <trkpt lat="46.028558" lon="7.299059">
        <time>1970-01-01T00:00:00+00:00</time>
        <ele>1778.0</ele>
      </trkpt>
      <trkpt lat="46.028738" lon="7.299544">
        <time>1970-01-01T00:00:00+00:00</time>
        <ele>1756.0</ele>
      </trkpt>
      <trkpt lat="46.028679" lon="7.300191">
        <time>1970-01-01T00:00:00+00:00</time>
        <ele>1744.0</ele>
      </trkpt>
      <trkpt lat="46.02845" lon="7.300491">
        <time>1970-01-01T00:00:00+00:00</time>
        <ele>1748.0</ele>
      </trkpt>
      <trkpt lat="46.028472" lon="7.300585">
        <time>1970-01-01T00:00:00+00:00</time>
        <ele>1743.0</ele>
      </trkpt>
      <trkpt lat="46.028597" lon="7.300593">
        <time>1970-01-01T00:00:00+00:00</time>
        <ele>1733.0</ele>
      </trkpt>
      <trkpt lat="46.02865" lon="7.300953">
        <time>1970-01-01T00:00:00+00:00</time>
        <ele>1715.0</ele>
      </trkpt>
      <trkpt lat="46.028884" lon="7.301103">
        <time>1970-01-01T00:00:00+00:00</time>
        <ele>1695.0</ele>
      </trkpt>
      <trkpt lat="46.028821" lon="7.30134">
        <time>1970-01-01T00:00:00+00:00</time>
        <ele>1696.0</ele>
      </trkpt>
      <trkpt lat="46.028848" lon="7.301548">
        <time>1970-01-01T00:00:00+00:00</time>
        <ele>1694.0</ele>
      </trkpt>
      <trkpt lat="46.029034" lon="7.302014">
        <time>1970-01-01T00:00:00+00:00</time>
        <ele>1684.0</ele>
      </trkpt>
      <trkpt lat="46.029194" lon="7.301752">
        <time>1970-01-01T00:00:00+00:00</time>
        <ele>1672.0</ele>
      </trkpt>
      <trkpt lat="46.029302" lon="7.301829">
        <time>1970-01-01T00:00:00+00:00</time>
        <ele>1664.0</ele>
      </trkpt>
      <trkpt lat="46.029408" lon="7.301668">
        <time>1970-01-01T00:00:00+00:00</time>
        <ele>1657.0</ele>
      </trkpt>
      <trkpt lat="46.029487" lon="7.301801">
        <time>1970-01-01T00:00:00+00:00</time>
        <ele>1654.0</ele>
      </trkpt>
      <trkpt lat="46.029659" lon="7.301732">
        <time>1970-01-01T00:00:00+00:00</time>
        <ele>1642.0</ele>
      </trkpt>
      <trkpt lat="46.029796" lon="7.301466">
        <time>1970-01-01T00:00:00+00:00</time>
        <ele>1630.0</ele>
      </trkpt>
      <trkpt lat="46.029894" lon="7.301455">
        <time>1970-01-01T00:00:00+00:00</time>
        <ele>1624.0</ele>
      </trkpt>
      <trkpt lat="46.030093" lon="7.300999">
        <time>1970-01-01T00:00:00+00:00</time>
        <ele>1608.0</ele>
      </trkpt>
      <trkpt lat="46.030261" lon="7.301168">
        <time>1970-01-01T00:00:00+00:00</time>
        <ele>1599.0</ele>
      </trkpt>
      <trkpt lat="46.030365" lon="7.301417">
        <time>1970-01-01T00:00:00+00:00</time>
        <ele>1596.0</ele>
      </trkpt>
      <trkpt lat="46.030456" lon="7.301308">
        <time>1970-01-01T00:00:00+00:00</time>
        <ele>1588.0</ele>
      </trkpt>
      <trkpt lat="46.030586" lon="7.301289">
        <time>1970-01-01T00:00:00+00:00</time>
        <ele>1581.0</ele>
      </trkpt>
      <trkpt lat="46.030624" lon="7.301178">
        <time>1970-01-01T00:00:00+00:00</time>
        <ele>1578.0</ele>
      </trkpt>
      <trkpt lat="46.030648" lon="7.301225">
        <time>1970-01-01T00:00:00+00:00</time>
        <ele>1577.0</ele>
      </trkpt>
      <trkpt lat="46.030785" lon="7.300908">
        <time>1970-01-01T00:00:00+00:00</time>
        <ele>1564.0</ele>
      </trkpt>
      <trkpt lat="46.031343" lon="7.301668">
        <time>1970-01-01T00:00:00+00:00</time>
        <ele>1546.0</ele>
      </trkpt>
      <trkpt lat="46.031494" lon="7.302721">
        <time>1970-01-01T00:00:00+00:00</time>
        <ele>1542.0</ele>
      </trkpt>
      <trkpt lat="46.031579" lon="7.302824">
        <time>1970-01-01T00:00:00+00:00</time>
        <ele>1540.0</ele>
      </trkpt>
      <trkpt lat="46.031622" lon="7.303099">
        <time>1970-01-01T00:00:00+00:00</time>
        <ele>1535.0</ele>
      </trkpt>
      <trkpt lat="46.031784" lon="7.30344">
        <time>1970-01-01T00:00:00+00:00</time>
        <ele>1529.0</ele>
      </trkpt>
      <trkpt lat="46.032169" lon="7.305015">
        <time>1970-01-01T00:00:00+00:00</time>
        <ele>1512.0</ele>
      </trkpt>
      <trkpt lat="46.03233" lon="7.305156">
        <time>1970-01-01T00:00:00+00:00</time>
        <ele>1507.0</ele>
      </trkpt>
      <trkpt lat="46.032419" lon="7.305329">
        <time>1970-01-01T00:00:00+00:00</time>
        <ele>1503.0</ele>
      </trkpt>
      <trkpt lat="46.032478" lon="7.305646">
        <time>1970-01-01T00:00:00+00:00</time>
        <ele>1499.0</ele>
      </trkpt>
      <trkpt lat="46.032575" lon="7.305811">
        <time>1970-01-01T00:00:00+00:00</time>
        <ele>1497.0</ele>
      </trkpt>
      <trkpt lat="46.032919" lon="7.306108">
        <time>1970-01-01T00:00:00+00:00</time>
        <ele>1491.0</ele>
      </trkpt>
      <trkpt lat="46.032951" lon="7.30624">
        <time>1970-01-01T00:00:00+00:00</time>
        <ele>1491.0</ele>
      </trkpt>
      <trkpt lat="46.032899" lon="7.306349">
        <time>1970-01-01T00:00:00+00:00</time>
        <ele>1491.0</ele>
      </trkpt>
    </trkseg>
  </trk>
</gpx>
